Wetterdaten: Mittwoch, 23.10.2013
Datum Zeit Temp. Aussen +5cm Feuchte Auss Luftdruck Regen Sonnenschein Regendauer UV Solar Windben
23.10.2013 00:00 14,8 C 13,3 C 97 % 1002,4 hPa 0,0 l/m 0 min 2 min 0,0 UV-I 0 W/m 5,1 km/h (1 Bft)
23.10.2013 00:02 14,8 C 13,3 C 97 % 1002,4 hPa 0,0 l/m 0 min 2 min 0,0 UV-I 0 W/m 0,0 km/h (0 Bft)
23.10.2013 00:06 14,8 C 13,3 C 98 % 1002,4 hPa 0,0 l/m 0 min 2 min 0,0 UV-I 0 W/m 12,9 km/h (3 Bft)
23.10.2013 00:08 14,8 C 13,3 C 98 % 1002,5 hPa 0,2 l/m 0 min 2 min 0,0 UV-I 0 W/m 10,3 km/h (2 Bft)
23.10.2013 00:10 14,8 C 13,3 C 98 % 1002,5 hPa 0,0 l/m 0 min 2 min 0,0 UV-I 0 W/m 10,3 km/h (2 Bft)
23.10.2013 00:12 14,8 C 13,3 C 98 % 1002,5 hPa 0,0 l/m 0 min 2 min 0,0 UV-I 0 W/m 7,7 km/h (2 Bft)
23.10.2013 00:14 14,8 C 13,3 C 98 % 1002,5 hPa 0,0 l/m 0 min 2 min 0,0 UV-I 0 W/m 15,4 km/h (3 Bft)
23.10.2013 00:16 14,8 C 13,3 C 98 % 1002,5 hPa 0,0 l/m 0 min 0 min 0,0 UV-I 0 W/m 12,9 km/h (3 Bft)
23.10.2013 00:18 14,8 C 13,3 C 98 % 1002,5 hPa 0,0 l/m 0 min 2 min 0,0 UV-I 0 W/m 12,9 km/h (3 Bft)
23.10.2013 00:20 14,8 C 13,3 C 98 % 1002,4 hPa 0,0 l/m 0 min 2 min 0,0 UV-I 0 W/m 12,9 km/h (3 Bft)
23.10.2013 00:22 14,8 C 13,3 C 98 % 1002,4 hPa 0,0 l/m 0 min 2 min 0,0 UV-I 0 W/m 10,3 km/h (2 Bft)
23.10.2013 00:24 14,8 C 13,3 C 98 % 1002,5 hPa 0,0 l/m 0 min 2 min 0,0 UV-I 0 W/m 10,3 km/h (2 Bft)
23.10.2013 00:26 14,9 C 13,3 C 98 % 1002,5 hPa 0,0 l/m 0 min 2 min 0,0 UV-I 0 W/m 7,7 km/h (2 Bft)
23.10.2013 00:28 14,9 C 13,3 C 98 % 1002,5 hPa 0,0 l/m 0 min 2 min 0,0 UV-I 0 W/m 7,7 km/h (2 Bft)
23.10.2013 00:30 14,9 C 13,3 C 98 % 1002,5 hPa 0,0 l/m 0 min 2 min 0,0 UV-I 0 W/m 12,9 km/h (3 Bft)
23.10.2013 00:32 14,9 C 13,3 C 98 % 1002,5 hPa 0,0 l/m 0 min 2 min 0,0 UV-I 0 W/m 12,9 km/h (3 Bft)
23.10.2013 00:34 14,9 C 13,3 C 98 % 1002,5 hPa 0,0 l/m 0 min 2 min 0,0 UV-I 0 W/m 15,4 km/h (3 Bft)
23.10.2013 00:36 14,9 C 13,3 C 98 % 1002,5 hPa 0,0 l/m 0 min 2 min 0,0 UV-I 0 W/m 7,7 km/h (2 Bft)
23.10.2013 00:38 14,9 C 13,3 C 98 % 1002,5 hPa 0,2 l/m 0 min 2 min 0,0 UV-I 0 W/m 18,0 km/h (3 Bft)
23.10.2013 00:40 14,9 C 13,3 C 98 % 1002,4 hPa 0,0 l/m 0 min 2 min 0,0 UV-I 0 W/m 10,3 km/h (2 Bft)
23.10.2013 00:42 14,9 C 13,9 C 98 % 1002,4 hPa 0,0 l/m 0 min 2 min 0,0 UV-I 0 W/m 12,9 km/h (3 Bft)
23.10.2013 00:44 14,9 C 13,9 C 98 % 1002,4 hPa 0,0 l/m 0 min 2 min 0,0 UV-I 0 W/m 20,6 km/h (4 Bft)
23.10.2013 00:46 14,9 C 13,9 C 98 % 1002,3 hPa 0,0 l/m 0 min 2 min 0,0 UV-I 0 W/m 18,0 km/h (3 Bft)
23.10.2013 00:48 15,0 C 13,9 C 98 % 1002,4 hPa 0,0 l/m 0 min 2 min 0,0 UV-I 0 W/m 20,6 km/h (4 Bft)
23.10.2013 00:50 15,0 C 13,9 C 98 % 1002,3 hPa 0,0 l/m 0 min 2 min 0,0 UV-I 0 W/m 15,4 km/h (3 Bft)
23.10.2013 00:52 15,0 C 13,9 C 98 % 1002,3 hPa 0,0 l/m 0 min 2 min 0,0 UV-I 0 W/m 18,0 km/h (3 Bft)
23.10.2013 00:54 15,0 C 13,9 C 98 % 1002,3 hPa 0,0 l/m 0 min 2 min 0,0 UV-I 0 W/m 12,9 km/h (3 Bft)
23.10.2013 00:56 15,0 C 13,9 C 98 % 1002,2 hPa 0,0 l/m 0 min 2 min 0,0 UV-I 0 W/m 18,0 km/h (3 Bft)
23.10.2013 00:58 15,0 C 13,9 C 98 % 1002,4 hPa 0,0 l/m 0 min 0 min 0,0 UV-I 0 W/m 12,9 km/h (3 Bft)
23.10.2013 01:00 15,0 C 13,9 C 98 % 1002,4 hPa 0,0 l/m 0 min 2 min 0,0 UV-I 0 W/m 10,3 km/h (2 Bft)
23.10.2013 01:02 15,0 C 13,9 C 98 % 1002,4 hPa 0,0 l/m 0 min 0 min 0,0 UV-I 0 W/m 12,9 km/h (3 Bft)
23.10.2013 01:06 15,0 C 13,9 C 98 % 1002,4 hPa 0,0 l/m 0 min 2 min 0,0 UV-I 0 W/m 15,4 km/h (3 Bft)
23.10.2013 01:08 15,0 C 13,9 C 98 % 1002,4 hPa 0,0 l/m 0 min 0 min 0,0 UV-I 0 W/m 12,9 km/h (3 Bft)
23.10.2013 01:10 15,0 C 13,9 C 98 % 1002,4 hPa 0,0 l/m 0 min 0 min 0,0 UV-I 0 W/m 15,4 km/h (3 Bft)
23.10.2013 01:12 15,0 C 13,9 C 98 % 1002,4 hPa 0,0 l/m 0 min 0 min 0,0 UV-I 0 W/m 10,3 km/h (2 Bft)
23.10.2013 01:14 15,0 C 13,9 C 98 % 1002,4 hPa 0,0 l/m 0 min 2 min 0,0 UV-I 0 W/m 15,4 km/h (3 Bft)
23.10.2013 01:16 15,0 C 13,9 C 98 % 1002,4 hPa 0,0 l/m 0 min 2 min 0,0 UV-I 0 W/m 7,7 km/h (2 Bft)
23.10.2013 01:18 15,0 C 13,9 C 98 % 1002,5 hPa 0,0 l/m 0 min 2 min 0,0 UV-I 0 W/m 18,0 km/h (3 Bft)
23.10.2013 01:20 15,0 C 13,3 C 98 % 1002,4 hPa 0,0 l/m 0 min 2 min 0,0 UV-I 0 W/m 12,9 km/h (3 Bft)
23.10.2013 01:22 15,0 C 13,3 C 98 % 1002,5 hPa 0,0 l/m 0 min 2 min 0,0 UV-I 0 W/m 10,3 km/h (2 Bft)
23.10.2013 01:24 15,0 C 13,3 C 98 % 1002,5 hPa 0,0 l/m 0 min 2 min 0,0 UV-I 0 W/m 12,9 km/h (3 Bft)
23.10.2013 01:26 15,0 C 13,3 C 98 % 1002,4 hPa 0,0 l/m 0 min 2 min 0,0 UV-I 0 W/m 18,0 km/h (3 Bft)
23.10.2013 01:28 14,9 C 13,3 C 98 % 1002,5 hPa 0,0 l/m 0 min 2 min 0,0 UV-I 0 W/m 5,1 km/h (1 Bft)
23.10.2013 01:30 14,9 C 13,3 C 98 % 1002,5 hPa 0,0 l/m 0 min 2 min 0,0 UV-I 0 W/m 10,3 km/h (2 Bft)
23.10.2013 01:32 14,9 C 13,3 C 98 % 1002,5 hPa 0,0 l/m 0 min 2 min 0,0 UV-I 0 W/m 12,9 km/h (3 Bft)
23.10.2013 01:34 14,9 C 13,3 C 98 % 1002,5 hPa 0,0 l/m 0 min 2 min 0,0 UV-I 0 W/m 12,9 km/h (3 Bft)
23.10.2013 01:36 14,9 C 13,3 C 98 % 1002,5 hPa 0,0 l/m 0 min 2 min 0,0 UV-I 0 W/m 7,7 km/h (2 Bft)
23.10.2013 01:38 14,9 C 13,3 C 98 % 1002,4 hPa 0,0 l/m 0 min 2 min 0,0 UV-I 0 W/m 10,3 km/h (2 Bft)
23.10.2013 01:40 14,9 C 13,3 C 98 % 1002,4 hPa 0,0 l/m 0 min 2 min 0,0 UV-I 0 W/m 10,3 km/h (2 Bft)
23.10.2013 01:42 14,9 C 13,3 C 98 % 1002,3 hPa 0,0 l/m 0 min 2 min 0,0 UV-I 0 W/m 10,3 km/h (2 Bft)
23.10.2013 01:44 14,9 C 13,3 C 98 % 1002,4 hPa 0,0 l/m 0 min 2 min 0,0 UV-I 0 W/m 20,6 km/h (4 Bft)
23.10.2013 01:46 14,8 C 13,3 C 98 % 1002,4 hPa 0,0 l/m 0 min 0 min 0,0 UV-I 0 W/m 2,6 km/h (1 Bft)
23.10.2013 01:48 14,8 C 13,3 C 98 % 1002,4 hPa 0,0 l/m 0 min 0 min 0,0 UV-I 0 W/m 10,3 km/h (2 Bft)
23.10.2013 01:50 14,8 C 13,3 C 98 % 1002,4 hPa 0,0 l/m 0 min 0 min 0,0 UV-I 0 W/m 7,7 km/h (2 Bft)
23.10.2013 01:52 14,8 C 13,3 C 98 % 1002,4 hPa 0,0 l/m 0 min 0 min 0,0 UV-I 0 W/m 5,1 km/h (1 Bft)
23.10.2013 01:54 14,8 C 13,3 C 98 % 1002,4 hPa 0,0 l/m 0 min 0 min 0,0 UV-I 0 W/m 7,7 km/h (2 Bft)
23.10.2013 01:56 14,8 C 13,3 C 98 % 1002,4 hPa 0,0 l/m 0 min 0 min 0,0 UV-I 0 W/m 12,9 km/h (3 Bft)
23.10.2013 01:58 14,8 C 13,3 C 98 % 1002,4 hPa 0,0 l/m 0 min 0 min 0,0 UV-I 0 W/m 10,3 km/h (2 Bft)
23.10.2013 02:00 14,8 C 13,3 C 98 % 1002,4 hPa 0,2 l/m 0 min 0 min 0,0 UV-I 0 W/m 12,9 km/h (3 Bft)
23.10.2013 02:02 14,8 C 13,3 C 98 % 1002,4 hPa 0,0 l/m 0 min 0 min 0,0 UV-I 0 W/m 15,4 km/h (3 Bft)
23.10.2013 02:06 14,8 C 13,3 C 98 % 1002,4 hPa 0,0 l/m 0 min 0 min 0,0 UV-I 0 W/m 10,3 km/h (2 Bft)
23.10.2013 02:08 14,8 C 13,3 C 98 % 1002,4 hPa 0,0 l/m 0 min 0 min 0,0 UV-I 0 W/m 18,0 km/h (3 Bft)
23.10.2013 02:10 14,8 C 13,3 C 98 % 1002,4 hPa 0,0 l/m 0 min 0 min 0,0 UV-I 0 W/m 7,7 km/h (2 Bft)
23.10.2013 02:12 14,8 C 13,3 C 98 % 1002,5 hPa 0,0 l/m 0 min 2 min 0,0 UV-I 0 W/m 12,9 km/h (3 Bft)
23.10.2013 02:14 14,8 C 13,3 C 98 % 1002,4 hPa 0,0 l/m 0 min 2 min 0,0 UV-I 0 W/m 18,0 km/h (3 Bft)
23.10.2013 02:16 14,8 C 13,3 C 98 % 1002,4 hPa 0,0 l/m 0 min 0 min 0,0 UV-I 0 W/m 18,0 km/h (3 Bft)
23.10.2013 02:18 14,8 C 13,3 C 98 % 1002,4 hPa 0,0 l/m 0 min 2 min 0,0 UV-I 0 W/m 10,3 km/h (2 Bft)
23.10.2013 02:20 14,8 C 13,3 C 98 % 1002,4 hPa 0,0 l/m 0 min 2 min 0,0 UV-I 0 W/m 12,9 km/h (3 Bft)
23.10.2013 02:22 14,9 C 13,3 C 98 % 1002,4 hPa 0,0 l/m 0 min 2 min 0,0 UV-I 0 W/m 10,3 km/h (2 Bft)
23.10.2013 02:24 14,9 C 13,3 C 99 % 1002,5 hPa 0,0 l/m 0 min 2 min 0,0 UV-I 0 W/m 10,3 km/h (2 Bft)
23.10.2013 02:26 14,9 C 13,3 C 99 % 1002,5 hPa 0,0 l/m 0 min 2 min 0,0 UV-I 0 W/m 12,9 km/h (3 Bft)
23.10.2013 02:28 14,9 C 13,3 C 98 % 1002,5 hPa 0,0 l/m 0 min 2 min 0,0 UV-I 0 W/m 12,9 km/h (3 Bft)
23.10.2013 02:30 14,9 C 13,3 C 98 % 1002,5 hPa 0,0 l/m 0 min 2 min 0,0 UV-I 0 W/m 15,4 km/h (3 Bft)
23.10.2013 02:32 15,0 C 13,3 C 98 % 1002,5 hPa 0,0 l/m 0 min 2 min 0,0 UV-I 0 W/m 18,0 km/h (3 Bft)
23.10.2013 02:34 15,0 C 13,3 C 98 % 1002,5 hPa 0,0 l/m 0 min 2 min 0,0 UV-I 0 W/m 18,0 km/h (3 Bft)
23.10.2013 02:36 15,0 C 13,3 C 98 % 1002,5 hPa 0,0 l/m 0 min 2 min 0,0 UV-I 0 W/m 12,9 km/h (3 Bft)
23.10.2013 02:38 15,1 C 13,3 C 98 % 1002,6 hPa 0,0 l/m 0 min 2 min 0,0 UV-I 0 W/m 12,9 km/h (3 Bft)
23.10.2013 02:40 15,1 C 13,3 C 98 % 1002,6 hPa 0,0 l/m 0 min 2 min 0,0 UV-I 0 W/m 15,4 km/h (3 Bft)
23.10.2013 02:42 15,1 C 13,3 C 98 % 1002,6 hPa 0,0 l/m 0 min 2 min 0,0 UV-I 0 W/m 18,0 km/h (3 Bft)
23.10.2013 02:44 15,1 C 13,3 C 98 % 1002,6 hPa 0,0 l/m 0 min 2 min 0,0 UV-I 0 W/m 20,6 km/h (4 Bft)
23.10.2013 02:46 15,1 C 13,9 C 98 % 1002,6 hPa 0,2 l/m 0 min 2 min 0,0 UV-I 0 W/m 23,2 km/h (4 Bft)
23.10.2013 02:48 15,1 C 13,9 C 98 % 1002,6 hPa 0,0 l/m 0 min 2 min 0,0 UV-I 0 W/m 20,6 km/h (4 Bft)
23.10.2013 02:50 15,1 C 13,9 C 98 % 1002,7 hPa 0,0 l/m 0 min 2 min 0,0 UV-I 0 W/m 15,4 km/h (3 Bft)
23.10.2013 02:52 15,1 C 13,9 C 98 % 1002,8 hPa 0,0 l/m 0 min 2 min 0,0 UV-I 0 W/m 10,3 km/h (2 Bft)
23.10.2013 02:54 15,1 C 13,9 C 98 % 1002,7 hPa 0,0 l/m 0 min 2 min 0,0 UV-I 0 W/m 5,1 km/h (1 Bft)
23.10.2013 02:56 15,1 C 13,9 C 98 % 1002,7 hPa 0,0 l/m 0 min 2 min 0,0 UV-I 0 W/m 18,0 km/h (3 Bft)
23.10.2013 02:58 15,1 C 13,9 C 98 % 1002,7 hPa 0,0 l/m 0 min 2 min 0,0 UV-I 0 W/m 2,6 km/h (1 Bft)
23.10.2013 03:00 15,1 C 13,9 C 98 % 1002,6 hPa 0,0 l/m 0 min 2 min 0,0 UV-I 0 W/m 12,9 km/h (3 Bft)
23.10.2013 03:02 15,2 C 13,9 C 98 % 1002,6 hPa 0,0 l/m 0 min 2 min 0,0 UV-I 0 W/m 12,9 km/h (3 Bft)
23.10.2013 03:06 15,2 C 13,9 C 98 % 1002,6 hPa 0,0 l/m 0 min 2 min 0,0 UV-I 0 W/m 20,6 km/h (4 Bft)
23.10.2013 03:08 15,2 C 13,9 C 98 % 1002,7 hPa 0,0 l/m 0 min 2 min 0,0 UV-I 0 W/m 7,7 km/h (2 Bft)
23.10.2013 03:10 15,2 C 13,9 C 98 % 1002,7 hPa 0,0 l/m 0 min 2 min 0,0 UV-I 0 W/m 12,9 km/h (3 Bft)
23.10.2013 03:12 15,2 C 13,9 C 98 % 1002,7 hPa 0,2 l/m 0 min 2 min 0,0 UV-I 0 W/m 15,4 km/h (3 Bft)
23.10.2013 03:14 15,2 C 13,3 C 98 % 1002,7 hPa 0,0 l/m 0 min 2 min 0,0 UV-I 0 W/m 15,4 km/h (3 Bft)
23.10.2013 03:16 15,2 C 13,9 C 98 % 1002,7 hPa 0,0 l/m 0 min 2 min 0,0 UV-I 0 W/m 18,0 km/h (3 Bft)
23.10.2013 03:18 15,2 C 13,9 C 98 % 1002,7 hPa 0,0 l/m 0 min 2 min 0,0 UV-I 0 W/m 18,0 km/h (3 Bft)
23.10.2013 03:20 15,2 C 13,3 C 98 % 1002,7 hPa 0,0 l/m 0 min 2 min 0,0 UV-I 0 W/m 15,4 km/h (3 Bft)
23.10.2013 03:22 15,2 C 13,3 C 98 % 1002,8 hPa 0,0 l/m 0 min 2 min 0,0 UV-I 0 W/m 18,0 km/h (3 Bft)
23.10.2013 03:24 15,2 C 13,3 C 98 % 1002,9 hPa 0,0 l/m 0 min 2 min 0,0 UV-I 0 W/m 10,3 km/h (2 Bft)
23.10.2013 03:26 15,2 C 13,3 C 98 % 1002,9 hPa 0,0 l/m 0 min 2 min 0,0 UV-I 0 W/m 12,9 km/h (3 Bft)
23.10.2013 03:28 15,2 C 13,3 C 98 % 1002,9 hPa 0,0 l/m 0 min 2 min 0,0 UV-I 0 W/m 15,4 km/h (3 Bft)
23.10.2013 03:30 15,1 C 13,3 C 98 % 1002,9 hPa 0,0 l/m 0 min 2 min 0,0 UV-I 0 W/m 10,3 km/h (2 Bft)
23.10.2013 03:32 15,1 C 13,3 C 98 % 1002,8 hPa 0,0 l/m 0 min 2 min 0,0 UV-I 0 W/m 10,3 km/h (2 Bft)
23.10.2013 03:34 15,1 C 13,3 C 98 % 1002,7 hPa 0,0 l/m 0 min 2 min 0,0 UV-I 0 W/m 10,3 km/h (2 Bft)
23.10.2013 03:36 15,1 C 13,3 C 98 % 1002,7 hPa 0,0 l/m 0 min 2 min 0,0 UV-I 0 W/m 15,4 km/h (3 Bft)
23.10.2013 03:38 15,1 C 13,3 C 98 % 1002,8 hPa 0,0 l/m 0 min 2 min 0,0 UV-I 0 W/m 15,4 km/h (3 Bft)
23.10.2013 03:40 15,1 C 13,3 C 98 % 1002,7 hPa 0,0 l/m 0 min 2 min 0,0 UV-I 0 W/m 18,0 km/h (3 Bft)
23.10.2013 03:42 15,1 C 13,3 C 98 % 1002,6 hPa 0,0 l/m 0 min 2 min 0,0 UV-I 0 W/m 20,6 km/h (4 Bft)
23.10.2013 03:44 15,1 C 13,3 C 98 % 1002,6 hPa 0,0 l/m 0 min 2 min 0,0 UV-I 0 W/m 10,3 km/h (2 Bft)
23.10.2013 03:46 15,1 C 13,3 C 98 % 1002,6 hPa 0,0 l/m 0 min 2 min 0,0 UV-I 0 W/m 10,3 km/h (2 Bft)
23.10.2013 03:48 15,1 C 13,3 C 98 % 1002,6 hPa 0,0 l/m 0 min 0 min 0,0 UV-I 0 W/m 18,0 km/h (3 Bft)
23.10.2013 03:50 15,1 C 13,3 C 98 % 1002,5 hPa 0,0 l/m 0 min 0 min 0,0 UV-I 0 W/m 18,0 km/h (3 Bft)
23.10.2013 03:52 15,1 C 13,3 C 98 % 1002,5 hPa 0,0 l/m 0 min 0 min 0,0 UV-I 0 W/m 5,1 km/h (1 Bft)
23.10.2013 03:54 15,1 C 13,3 C 98 % 1002,5 hPa 0,0 l/m 0 min 0 min 0,0 UV-I 0 W/m 15,4 km/h (3 Bft)
23.10.2013 03:56 15,1 C 13,3 C 98 % 1002,5 hPa 0,0 l/m 0 min 0 min 0,0 UV-I 0 W/m 18,0 km/h (3 Bft)
23.10.2013 03:58 15,1 C 13,3 C 98 % 1002,4 hPa 0,0 l/m 0 min 0 min 0,0 UV-I 0 W/m 12,9 km/h (3 Bft)
23.10.2013 04:00 15,1 C 13,3 C 98 % 1002,5 hPa 0,0 l/m 0 min 0 min 0,0 UV-I 0 W/m 10,3 km/h (2 Bft)
23.10.2013 04:02 15,1 C 13,3 C 98 % 1002,4 hPa 0,0 l/m 0 min 0 min 0,0 UV-I 0 W/m 7,7 km/h (2 Bft)
23.10.2013 04:06 15,1 C 13,3 C 98 % 1002,3 hPa 0,0 l/m 0 min 0 min 0,0 UV-I 0 W/m 12,9 km/h (3 Bft)
23.10.2013 04:08 15,1 C 13,3 C 98 % 1002,3 hPa 0,0 l/m 0 min 0 min 0,0 UV-I 0 W/m 15,4 km/h (3 Bft)
23.10.2013 04:10 15,1 C 13,3 C 98 % 1002,3 hPa 0,0 l/m 0 min 0 min 0,0 UV-I 0 W/m 10,3 km/h (2 Bft)
23.10.2013 04:12 15,1 C 13,3 C 98 % 1002,3 hPa 0,0 l/m 0 min 0 min 0,0 UV-I 0 W/m 15,4 km/h (3 Bft)
23.10.2013 04:14 15,1 C 13,3 C 98 % 1002,3 hPa 0,0 l/m 0 min 0 min 0,0 UV-I 0 W/m 12,9 km/h (3 Bft)
23.10.2013 04:16 15,1 C 13,3 C 98 % 1002,3 hPa 0,0 l/m 0 min 0 min 0,0 UV-I 0 W/m 15,4 km/h (3 Bft)
23.10.2013 04:18 15,1 C 13,3 C 98 % 1002,3 hPa 0,0 l/m 0 min 0 min 0,0 UV-I 0 W/m 12,9 km/h (3 Bft)
23.10.2013 04:20 15,1 C 13,3 C 98 % 1002,3 hPa 0,0 l/m 0 min 0 min 0,0 UV-I 0 W/m 18,0 km/h (3 Bft)
23.10.2013 04:22 15,1 C 13,3 C 98 % 1002,3 hPa 0,0 l/m 0 min 0 min 0,0 UV-I 0 W/m 12,9 km/h (3 Bft)
23.10.2013 04:24 15,1 C 13,3 C 98 % 1002,3 hPa 0,0 l/m 0 min 0 min 0,0 UV-I 0 W/m 15,4 km/h (3 Bft)
23.10.2013 04:26 15,1 C 13,3 C 98 % 1002,4 hPa 0,0 l/m 0 min 0 min 0,0 UV-I 0 W/m 15,4 km/h (3 Bft)
23.10.2013 04:28 15,1 C 13,3 C 98 % 1002,3 hPa 0,0 l/m 0 min 0 min 0,0 UV-I 0 W/m 15,4 km/h (3 Bft)
23.10.2013 04:30 15,1 C 13,3 C 98 % 1002,2 hPa 0,0 l/m 0 min 0 min 0,0 UV-I 0 W/m 12,9 km/h (3 Bft)
23.10.2013 04:32 15,1 C 13,3 C 98 % 1002,3 hPa 0,0 l/m 0 min 0 min 0,0 UV-I 0 W/m 15,4 km/h (3 Bft)
23.10.2013 04:34 15,1 C 13,3 C 98 % 1002,2 hPa 0,0 l/m 0 min 0 min 0,0 UV-I 0 W/m 7,7 km/h (2 Bft)
23.10.2013 04:36 15,1 C 13,3 C 98 % 1002,1 hPa 0,0 l/m 0 min 0 min 0,0 UV-I 0 W/m 7,7 km/h (2 Bft)
23.10.2013 04:38 15,1 C 13,3 C 98 % 1002,1 hPa 0,0 l/m 0 min 0 min 0,0 UV-I 0 W/m 12,9 km/h (3 Bft)
23.10.2013 04:40 15,1 C 13,3 C 98 % 1002,3 hPa 0,0 l/m 0 min 0 min 0,0 UV-I 0 W/m 15,4 km/h (3 Bft)
23.10.2013 04:42 15,1 C 13,3 C 98 % 1002,4 hPa 0,0 l/m 0 min 0 min 0,0 UV-I 0 W/m 15,4 km/h (3 Bft)
23.10.2013 04:44 15,1 C 13,3 C 98 % 1002,2 hPa 0,0 l/m 0 min 0 min 0,0 UV-I 0 W/m 7,7 km/h (2 Bft)
23.10.2013 04:46 15,1 C 13,3 C 98 % 1002,2 hPa 0,0 l/m 0 min 0 min 0,0 UV-I 0 W/m 15,4 km/h (3 Bft)
23.10.2013 04:48 15,1 C 13,3 C 98 % 1002,2 hPa 0,0 l/m 0 min 0 min 0,0 UV-I 0 W/m 15,4 km/h (3 Bft)
23.10.2013 04:50 15,2 C 13,3 C 98 % 1002,1 hPa 0,0 l/m 0 min 0 min 0,0 UV-I 0 W/m 12,9 km/h (3 Bft)
23.10.2013 04:52 15,2 C 13,3 C 98 % 1002,1 hPa 0,0 l/m 0 min 0 min 0,0 UV-I 0 W/m 2,6 km/h (1 Bft)
23.10.2013 04:54 15,1 C 13,3 C 98 % 1002,0 hPa 0,0 l/m 0 min 0 min 0,0 UV-I 0 W/m 12,9 km/h (3 Bft)
23.10.2013 04:56 15,1 C 13,3 C 98 % 1002,0 hPa 0,0 l/m 0 min 0 min 0,0 UV-I 0 W/m 12,9 km/h (3 Bft)
23.10.2013 04:58 15,1 C 13,3 C 98 % 1002,0 hPa 0,0 l/m 0 min 0 min 0,0 UV-I 0 W/m 10,3 km/h (2 Bft)
23.10.2013 05:00 15,1 C 13,3 C 98 % 1001,9 hPa 0,0 l/m 0 min 0 min 0,0 UV-I 0 W/m 15,4 km/h (3 Bft)
23.10.2013 05:02 15,1 C 13,3 C 98 % 1001,9 hPa 0,0 l/m 0 min 0 min 0,0 UV-I 0 W/m 15,4 km/h (3 Bft)
23.10.2013 05:06 15,1 C 13,3 C 98 % 1001,9 hPa 0,0 l/m 0 min 0 min 0,0 UV-I 0 W/m 15,4 km/h (3 Bft)
23.10.2013 05:08 15,1 C 13,3 C 98 % 1001,9 hPa 0,0 l/m 0 min 0 min 0,0 UV-I 0 W/m 10,3 km/h (2 Bft)
23.10.2013 05:10 15,1 C 13,3 C 98 % 1001,8 hPa 0,0 l/m 0 min 0 min 0,0 UV-I 0 W/m 18,0 km/h (3 Bft)
23.10.2013 05:12 15,1 C 13,3 C 98 % 1001,8 hPa 0,0 l/m 0 min 0 min 0,0 UV-I 0 W/m 20,6 km/h (4 Bft)
23.10.2013 05:14 15,1 C 13,3 C 98 % 1001,8 hPa 0,0 l/m 0 min 0 min 0,0 UV-I 0 W/m 20,6 km/h (4 Bft)
23.10.2013 05:16 15,1 C 13,3 C 98 % 1001,7 hPa 0,0 l/m 0 min 0 min 0,0 UV-I 0 W/m 15,4 km/h (3 Bft)
23.10.2013 05:18 15,0 C 13,3 C 98 % 1001,8 hPa 0,0 l/m 0 min 0 min 0,0 UV-I 0 W/m 7,7 km/h (2 Bft)
23.10.2013 05:20 15,0 C 13,3 C 98 % 1001,7 hPa 0,0 l/m 0 min 0 min 0,0 UV-I 0 W/m 15,4 km/h (3 Bft)
23.10.2013 05:22 15,0 C 13,3 C 98 % 1001,8 hPa 0,0 l/m 0 min 0 min 0,0 UV-I 0 W/m 15,4 km/h (3 Bft)
23.10.2013 05:24 15,0 C 13,3 C 98 % 1001,8 hPa 0,0 l/m 0 min 0 min 0,0 UV-I 0 W/m 12,9 km/h (3 Bft)
23.10.2013 05:26 15,0 C 13,3 C 98 % 1001,9 hPa 0,0 l/m 0 min 0 min 0,0 UV-I 0 W/m 18,0 km/h (3 Bft)
23.10.2013 05:28 15,0 C 13,3 C 98 % 1001,9 hPa 0,0 l/m 0 min 0 min 0,0 UV-I 0 W/m 15,4 km/h (3 Bft)
23.10.2013 05:30 14,9 C 13,3 C 98 % 1002,0 hPa 0,0 l/m 0 min 0 min 0,0 UV-I 0 W/m 0,0 km/h (0 Bft)
23.10.2013 05:32 14,9 C 13,3 C 98 % 1002,0 hPa 0,0 l/m 0 min 0 min 0,0 UV-I 0 W/m 12,9 km/h (3 Bft)
23.10.2013 05:34 14,9 C 13,3 C 98 % 1002,0 hPa 0,0 l/m 0 min 0 min 0,0 UV-I 0 W/m 15,4 km/h (3 Bft)
23.10.2013 05:36 14,9 C 13,3 C 98 % 1002,0 hPa 0,0 l/m 0 min 0 min 0,0 UV-I 0 W/m 15,4 km/h (3 Bft)
23.10.2013 05:38 14,9 C 13,3 C 98 % 1002,0 hPa 0,0 l/m 0 min 0 min 0,0 UV-I 0 W/m 7,7 km/h (2 Bft)
23.10.2013 05:40 14,9 C 13,3 C 98 % 1002,0 hPa 0,0 l/m 0 min 0 min 0,0 UV-I 0 W/m 18,0 km/h (3 Bft)
23.10.2013 05:42 14,9 C 13,3 C 98 % 1002,0 hPa 0,0 l/m 0 min 0 min 0,0 UV-I 0 W/m 15,4 km/h (3 Bft)
23.10.2013 05:44 14,9 C 13,3 C 98 % 1002,0 hPa 0,0 l/m 0 min 0 min 0,0 UV-I 0 W/m 20,6 km/h (4 Bft)
23.10.2013 05:46 14,9 C 13,3 C 98 % 1002,0 hPa 0,0 l/m 0 min 0 min 0,0 UV-I 0 W/m 10,3 km/h (2 Bft)
23.10.2013 05:48 14,9 C 13,3 C 98 % 1002,0 hPa 0,0 l/m 0 min 0 min 0,0 UV-I 0 W/m 10,3 km/h (2 Bft)
23.10.2013 05:50 14,9 C 13,3 C 98 % 1002,0 hPa 0,0 l/m 0 min 0 min 0,0 UV-I 0 W/m 12,9 km/h (3 Bft)
23.10.2013 05:52 14,9 C 13,3 C 98 % 1002,0 hPa 0,0 l/m 0 min 0 min 0,0 UV-I 0 W/m 15,4 km/h (3 Bft)
23.10.2013 05:54 14,9 C 13,3 C 98 % 1002,0 hPa 0,0 l/m 0 min 0 min 0,0 UV-I 0 W/m 12,9 km/h (3 Bft)
23.10.2013 05:56 14,9 C 13,3 C 98 % 1002,0 hPa 0,0 l/m 0 min 0 min 0,0 UV-I 0 W/m 18,0 km/h (3 Bft)
23.10.2013 05:58 14,9 C 13,3 C 98 % 1001,9 hPa 0,0 l/m 0 min 0 min 0,0 UV-I 0 W/m 10,3 km/h (2 Bft)
23.10.2013 06:00 14,9 C 13,3 C 98 % 1001,9 hPa 0,0 l/m 0 min 0 min 0,0 UV-I 0 W/m 7,7 km/h (2 Bft)
23.10.2013 06:02 14,9 C 13,3 C 98 % 1002,0 hPa 0,0 l/m 0 min 0 min 0,0 UV-I 0 W/m 12,9 km/h (3 Bft)
23.10.2013 06:06 14,9 C 13,3 C 98 % 1002,0 hPa 0,0 l/m 0 min 0 min 0,0 UV-I 0 W/m 10,3 km/h (2 Bft)
23.10.2013 06:08 14,9 C 13,3 C 98 % 1001,9 hPa 0,0 l/m 0 min 0 min 0,0 UV-I 0 W/m 0,0 km/h (0 Bft)
23.10.2013 06:10 14,9 C 13,3 C 98 % 1001,9 hPa 0,0 l/m 0 min 0 min 0,0 UV-I 0 W/m 12,9 km/h (3 Bft)
23.10.2013 06:12 14,8 C 13,3 C 98 % 1001,9 hPa 0,0 l/m 0 min 0 min 0,0 UV-I 0 W/m 10,3 km/h (2 Bft)
23.10.2013 06:14 14,8 C 13,3 C 98 % 1001,9 hPa 0,0 l/m 0 min 0 min 0,0 UV-I 0 W/m 7,7 km/h (2 Bft)
23.10.2013 06:16 14,8 C 13,3 C 98 % 1001,8 hPa 0,0 l/m 0 min 0 min 0,0 UV-I 0 W/m 7,7 km/h (2 Bft)
23.10.2013 06:18 14,8 C 13,3 C 98 % 1002,0 hPa 0,0 l/m 0 min 0 min 0,0 UV-I 0 W/m 12,9 km/h (3 Bft)
23.10.2013 06:20 14,8 C 13,3 C 98 % 1002,0 hPa 0,0 l/m 0 min 0 min 0,0 UV-I 0 W/m 10,3 km/h (2 Bft)
23.10.2013 06:22 14,8 C 13,3 C 98 % 1002,0 hPa 0,0 l/m 0 min 0 min 0,0 UV-I 0 W/m 15,4 km/h (3 Bft)
23.10.2013 06:24 14,8 C 12,8 C 98 % 1001,9 hPa 0,0 l/m 0 min 0 min 0,0 UV-I 0 W/m 18,0 km/h (3 Bft)
23.10.2013 06:26 14,8 C 13,3 C 98 % 1001,8 hPa 0,0 l/m 0 min 0 min 0,0 UV-I 0 W/m 12,9 km/h (3 Bft)
23.10.2013 06:28 14,8 C 12,8 C 98 % 1001,8 hPa 0,0 l/m 0 min 0 min 0,0 UV-I 0 W/m 18,0 km/h (3 Bft)
23.10.2013 06:30 14,8 C 12,8 C 98 % 1001,8 hPa 0,0 l/m 0 min 0 min 0,0 UV-I 0 W/m 15,4 km/h (3 Bft)
23.10.2013 06:32 14,8 C 13,3 C 98 % 1001,8 hPa 0,0 l/m 0 min 0 min 0,0 UV-I 0 W/m 12,9 km/h (3 Bft)
23.10.2013 06:34 14,8 C 12,8 C 98 % 1001,9 hPa 0,0 l/m 0 min 0 min 0,0 UV-I 0 W/m 10,3 km/h (2 Bft)
23.10.2013 06:36 14,8 C 13,3 C 98 % 1001,8 hPa 0,0 l/m 0 min 0 min 0,0 UV-I 0 W/m 10,3 km/h (2 Bft)
23.10.2013 06:38 14,8 C 12,8 C 98 % 1001,8 hPa 0,0 l/m 0 min 0 min 0,0 UV-I 0 W/m 12,9 km/h (3 Bft)
23.10.2013 06:40 14,8 C 12,8 C 98 % 1001,7 hPa 0,0 l/m 0 min 0 min 0,0 UV-I 0 W/m 12,9 km/h (3 Bft)
23.10.2013 06:42 14,8 C 12,8 C 98 % 1001,6 hPa 0,0 l/m 0 min 0 min 0,0 UV-I 0 W/m 12,9 km/h (3 Bft)
23.10.2013 06:44 14,8 C 12,8 C 97 % 1001,6 hPa 0,0 l/m 0 min 0 min 0,0 UV-I 0 W/m 15,4 km/h (3 Bft)
23.10.2013 06:46 14,8 C 12,8 C 97 % 1001,6 hPa 0,0 l/m 0 min 0 min 0,0 UV-I 0 W/m 10,3 km/h (2 Bft)
23.10.2013 06:48 14,8 C 12,8 C 97 % 1001,7 hPa 0,0 l/m 0 min 0 min 0,0 UV-I 0 W/m 12,9 km/h (3 Bft)
23.10.2013 06:50 14,7 C 12,8 C 97 % 1001,7 hPa 0,0 l/m 0 min 0 min 0,0 UV-I 0 W/m 10,3 km/h (2 Bft)
23.10.2013 06:52 14,7 C 12,8 C 97 % 1001,8 hPa 0,0 l/m 0 min 0 min 0,0 UV-I 0 W/m 10,3 km/h (2 Bft)
23.10.2013 06:54 14,7 C 12,8 C 97 % 1001,8 hPa 0,0 l/m 0 min 0 min 0,0 UV-I 0 W/m 10,3 km/h (2 Bft)
23.10.2013 06:56 14,7 C 12,8 C 97 % 1001,8 hPa 0,0 l/m 0 min 0 min 0,0 UV-I 0 W/m 10,3 km/h (2 Bft)
23.10.2013 06:58 14,7 C 12,8 C 97 % 1001,8 hPa 0,0 l/m 0 min 0 min 0,0 UV-I 0 W/m 20,6 km/h (4 Bft)
23.10.2013 07:00 14,7 C 12,8 C 97 % 1001,8 hPa 0,0 l/m 0 min 0 min 0,0 UV-I 0 W/m 23,2 km/h (4 Bft)
23.10.2013 07:02 14,7 C 12,8 C 97 % 1001,7 hPa 0,0 l/m 0 min 0 min 0,0 UV-I 0 W/m 23,2 km/h (4 Bft)
23.10.2013 07:06 14,7 C 12,8 C 97 % 1001,7 hPa 0,0 l/m 0 min 0 min 0,0 UV-I 0 W/m 18,0 km/h (3 Bft)
23.10.2013 07:08 14,7 C 12,8 C 97 % 1001,6 hPa 0,0 l/m 0 min 0 min 0,0 UV-I 0 W/m 15,4 km/h (3 Bft)
23.10.2013 07:10 14,7 C 12,8 C 97 % 1001,7 hPa 0,0 l/m 0 min 0 min 0,0 UV-I 0 W/m 10,3 km/h (2 Bft)
23.10.2013 07:12 14,7 C 12,8 C 97 % 1001,7 hPa 0,0 l/m 0 min 0 min 0,0 UV-I 0 W/m 18,0 km/h (3 Bft)
23.10.2013 07:14 14,7 C 12,8 C 97 % 1001,7 hPa 0,0 l/m 0 min 0 min 0,0 UV-I 0 W/m 23,2 km/h (4 Bft)
23.10.2013 07:16 14,7 C 13,3 C 97 % 1001,7 hPa 0,0 l/m 0 min 0 min 0,0 UV-I 0 W/m 15,4 km/h (3 Bft)
23.10.2013 07:18 14,7 C 13,3 C 97 % 1001,6 hPa 0,0 l/m 0 min 0 min 0,0 UV-I 0 W/m 23,2 km/h (4 Bft)
23.10.2013 07:20 14,8 C 13,3 C 97 % 1001,7 hPa 0,0 l/m 0 min 0 min 0,0 UV-I 0 W/m 20,6 km/h (4 Bft)
23.10.2013 07:22 14,8 C 13,3 C 97 % 1001,8 hPa 0,0 l/m 0 min 0 min 0,0 UV-I 0 W/m 18,0 km/h (3 Bft)
23.10.2013 07:24 14,8 C 13,3 C 97 % 1001,8 hPa 0,0 l/m 0 min 0 min 0,0 UV-I 0 W/m 20,6 km/h (4 Bft)
23.10.2013 07:26 14,8 C 13,3 C 97 % 1001,7 hPa 0,0 l/m 0 min 0 min 0,0 UV-I 0 W/m 18,0 km/h (3 Bft)
23.10.2013 07:28 14,8 C 13,3 C 97 % 1001,8 hPa 0,0 l/m 0 min 0 min 0,0 UV-I 0 W/m 15,4 km/h (3 Bft)
23.10.2013 07:30 14,8 C 13,3 C 97 % 1001,8 hPa 0,0 l/m 0 min 0 min 0,0 UV-I 0 W/m 23,2 km/h (4 Bft)
23.10.2013 07:32 14,8 C 13,3 C 97 % 1001,8 hPa 0,0 l/m 0 min 0 min 0,0 UV-I 0 W/m 12,9 km/h (3 Bft)
23.10.2013 07:34 14,9 C 13,3 C 97 % 1001,8 hPa 0,0 l/m 0 min 0 min 0,0 UV-I 0 W/m 18,0 km/h (3 Bft)
23.10.2013 07:36 14,9 C 13,3 C 97 % 1001,7 hPa 0,0 l/m 0 min 0 min 0,0 UV-I 0 W/m 15,4 km/h (3 Bft)
23.10.2013 07:38 14,9 C 13,3 C 97 % 1001,8 hPa 0,0 l/m 0 min 0 min 0,0 UV-I 0 W/m 10,3 km/h (2 Bft)
23.10.2013 07:40 14,9 C 13,3 C 97 % 1001,9 hPa 0,0 l/m 0 min 0 min 0,0 UV-I 0 W/m 20,6 km/h (4 Bft)
23.10.2013 07:42 14,9 C 13,3 C 97 % 1001,9 hPa 0,0 l/m 0 min 0 min 0,0 UV-I 0 W/m 15,4 km/h (3 Bft)
23.10.2013 07:44 14,9 C 13,3 C 97 % 1001,8 hPa 0,0 l/m 0 min 0 min 0,0 UV-I 0 W/m 20,6 km/h (4 Bft)
23.10.2013 07:46 14,9 C 13,3 C 97 % 1001,8 hPa 0,0 l/m 0 min 0 min 0,0 UV-I 0 W/m 20,6 km/h (4 Bft)
23.10.2013 07:48 14,9 C 13,3 C 97 % 1001,8 hPa 0,0 l/m 0 min 0 min 0,0 UV-I 0 W/m 20,6 km/h (4 Bft)
23.10.2013 07:50 14,9 C 13,3 C 97 % 1001,9 hPa 0,0 l/m 0 min 0 min 0,0 UV-I 0 W/m 23,2 km/h (4 Bft)
23.10.2013 07:52 15,0 C 13,3 C 97 % 1001,8 hPa 0,0 l/m 0 min 0 min 0,0 UV-I 0 W/m 12,9 km/h (3 Bft)
23.10.2013 07:54 15,0 C 13,3 C 97 % 1001,8 hPa 0,0 l/m 0 min 2 min 0,0 UV-I 0 W/m 18,0 km/h (3 Bft)
23.10.2013 07:56 15,0 C 13,3 C 97 % 1001,8 hPa 0,0 l/m 0 min 2 min 0,0 UV-I 0 W/m 15,4 km/h (3 Bft)
23.10.2013 07:58 15,0 C 13,3 C 97 % 1001,7 hPa 0,0 l/m 0 min 2 min 0,0 UV-I 0 W/m 15,4 km/h (3 Bft)
23.10.2013 08:00 15,1 C 13,3 C 97 % 1001,6 hPa 0,0 l/m 0 min 2 min 0,0 UV-I 0 W/m 20,6 km/h (4 Bft)
23.10.2013 08:02 15,1 C 13,3 C 97 % 1001,7 hPa 0,0 l/m 0 min 2 min 0,0 UV-I 0 W/m 23,2 km/h (4 Bft)
23.10.2013 08:06 15,1 C 13,3 C 97 % 1001,7 hPa 0,0 l/m 0 min 2 min 0,0 UV-I 0 W/m 20,6 km/h (4 Bft)
23.10.2013 08:08 15,1 C 13,3 C 97 % 1001,8 hPa 0,0 l/m 0 min 2 min 0,0 UV-I 0 W/m 18,0 km/h (3 Bft)
23.10.2013 08:10 15,1 C 13,3 C 97 % 1001,8 hPa 0,0 l/m 0 min 2 min 0,0 UV-I 0 W/m 12,9 km/h (3 Bft)
23.10.2013 08:12 15,1 C 13,3 C 97 % 1001,8 hPa 0,0 l/m 0 min 0 min 0,0 UV-I 0 W/m 15,4 km/h (3 Bft)
23.10.2013 08:14 15,1 C 13,3 C 97 % 1001,7 hPa 0,0 l/m 0 min 0 min 0,0 UV-I 0 W/m 15,4 km/h (3 Bft)
23.10.2013 08:16 15,1 C 13,3 C 97 % 1001,7 hPa 0,0 l/m 0 min 0 min 0,0 UV-I 0 W/m 20,6 km/h (4 Bft)
23.10.2013 08:18 15,2 C 13,3 C 97 % 1001,6 hPa 0,0 l/m 0 min 0 min 0,0 UV-I 0 W/m 25,7 km/h (4 Bft)
23.10.2013 08:20 15,2 C 13,3 C 97 % 1001,7 hPa 0,0 l/m 0 min 0 min 0,0 UV-I 0 W/m 18,0 km/h (3 Bft)
23.10.2013 08:22 15,2 C 13,3 C 97 % 1001,5 hPa 0,0 l/m 0 min 0 min 0,0 UV-I 0 W/m 15,4 km/h (3 Bft)
23.10.2013 08:24 15,2 C 13,3 C 97 % 1001,6 hPa 0,0 l/m 0 min 0 min 0,0 UV-I 0 W/m 12,9 km/h (3 Bft)
23.10.2013 08:26 15,2 C 13,3 C 97 % 1001,7 hPa 0,0 l/m 0 min 0 min 0,0 UV-I 0 W/m 12,9 km/h (3 Bft)
23.10.2013 08:28 15,2 C 13,3 C 96 % 1001,7 hPa 0,0 l/m 0 min 0 min 0,0 UV-I 0 W/m 15,4 km/h (3 Bft)
23.10.2013 08:30 15,3 C 13,3 C 96 % 1001,9 hPa 0,0 l/m 0 min 0 min 0,0 UV-I 0 W/m 15,4 km/h (3 Bft)
23.10.2013 08:32 15,3 C 13,3 C 96 % 1001,8 hPa 0,0 l/m 0 min 0 min 0,0 UV-I 5 W/m 18,0 km/h (3 Bft)
23.10.2013 08:34 15,3 C 13,3 C 96 % 1001,9 hPa 0,0 l/m 0 min 0 min 0,0 UV-I 7 W/m 15,4 km/h (3 Bft)
23.10.2013 08:36 15,3 C 13,3 C 96 % 1002,0 hPa 0,0 l/m 0 min 0 min 0,0 UV-I 7 W/m 20,6 km/h (4 Bft)
23.10.2013 08:38 15,4 C 13,3 C 96 % 1002,0 hPa 0,0 l/m 0 min 0 min 0,0 UV-I 7 W/m 20,6 km/h (4 Bft)
23.10.2013 08:40 15,4 C 13,3 C 96 % 1002,0 hPa 0,0 l/m 0 min 0 min 0,0 UV-I 9 W/m 28,3 km/h (4 Bft)
23.10.2013 08:42 15,4 C 13,9 C 96 % 1002,1 hPa 0,0 l/m 0 min 0 min 0,0 UV-I 7 W/m 18,0 km/h (3 Bft)
23.10.2013 08:44 15,4 C 13,9 C 96 % 1002,0 hPa 0,0 l/m 0 min 0 min 0,0 UV-I 7 W/m 23,2 km/h (4 Bft)
23.10.2013 08:46 15,5 C 13,9 C 96 % 1002,0 hPa 0,0 l/m 0 min 0 min 0,0 UV-I 9 W/m 20,6 km/h (4 Bft)
23.10.2013 08:48 15,5 C 13,9 C 96 % 1002,0 hPa 0,0 l/m 0 min 0 min 0,0 UV-I 9 W/m 18,0 km/h (3 Bft)
23.10.2013 08:50 15,6 C 13,9 C 96 % 1002,2 hPa 0,0 l/m 0 min 0 min 0,0 UV-I 7 W/m 18,0 km/h (3 Bft)
23.10.2013 08:52 15,6 C 13,9 C 95 % 1002,3 hPa 0,0 l/m 0 min 0 min 0,0 UV-I 9 W/m 20,6 km/h (4 Bft)
23.10.2013 08:54 15,6 C 13,9 C 95 % 1002,2 hPa 0,0 l/m 0 min 0 min 0,0 UV-I 11 W/m 10,3 km/h (2 Bft)
23.10.2013 08:56 15,6 C 13,9 C 95 % 1002,3 hPa 0,0 l/m 0 min 0 min 0,0 UV-I 11 W/m 18,0 km/h (3 Bft)
23.10.2013 08:58 15,7 C 13,9 C 95 % 1002,2 hPa 0,0 l/m 0 min 0 min 0,0 UV-I 12 W/m 12,9 km/h (3 Bft)
23.10.2013 09:00 15,7 C 13,9 C 95 % 1002,3 hPa 0,0 l/m 0 min 0 min 0,0 UV-I 12 W/m 12,9 km/h (3 Bft)
23.10.2013 09:02 15,7 C 13,9 C 95 % 1002,3 hPa 0,0 l/m 0 min 0 min 0,0 UV-I 12 W/m 18,0 km/h (3 Bft)
23.10.2013 09:06 15,7 C 13,9 C 95 % 1002,3 hPa 0,0 l/m 0 min 0 min 0,0 UV-I 14 W/m 28,3 km/h (4 Bft)
23.10.2013 09:08 15,7 C 13,9 C 95 % 1002,3 hPa 0,0 l/m 0 min 0 min 0,0 UV-I 14 W/m 20,6 km/h (4 Bft)
23.10.2013 09:10 15,8 C 13,9 C 95 % 1002,3 hPa 0,0 l/m 0 min 0 min 0,0 UV-I 12 W/m 23,2 km/h (4 Bft)
23.10.2013 09:12 15,8 C 13,9 C 95 % 1002,3 hPa 0,0 l/m 0 min 0 min 0,0 UV-I 11 W/m 20,6 km/h (4 Bft)
23.10.2013 09:14 15,8 C 13,9 C 95 % 1002,3 hPa 0,0 l/m 0 min 0 min 0,0 UV-I 11 W/m 15,4 km/h (3 Bft)
23.10.2013 09:16 15,8 C 13,9 C 94 % 1002,3 hPa 0,0 l/m 0 min 0 min 0,0 UV-I 11 W/m 15,4 km/h (3 Bft)
23.10.2013 09:18 15,8 C 13,9 C 94 % 1002,3 hPa 0,0 l/m 0 min 0 min 0,0 UV-I 11 W/m 23,2 km/h (4 Bft)
23.10.2013 09:20 15,8 C 13,9 C 94 % 1002,3 hPa 0,0 l/m 0 min 0 min 0,0 UV-I 12 W/m 18,0 km/h (3 Bft)
23.10.2013 09:22 15,8 C 13,9 C 94 % 1002,3 hPa 0,0 l/m 0 min 0 min 0,0 UV-I 16 W/m 0,0 km/h (0 Bft)
23.10.2013 09:24 15,8 C 13,9 C 94 % 1002,4 hPa 0,0 l/m 0 min 0 min 0,0 UV-I 19 W/m 5,1 km/h (1 Bft)
23.10.2013 09:26 15,8 C 13,9 C 94 % 1002,4 hPa 0,0 l/m 0 min 0 min 0,0 UV-I 21 W/m 12,9 km/h (3 Bft)
23.10.2013 09:28 15,8 C 13,9 C 94 % 1002,4 hPa 0,0 l/m 0 min 2 min 0,0 UV-I 26 W/m 12,9 km/h (3 Bft)
23.10.2013 09:30 15,8 C 13,9 C 94 % 1002,3 hPa 0,0 l/m 0 min 0 min 0,0 UV-I 35 W/m 15,4 km/h (3 Bft)
23.10.2013 09:32 15,8 C 13,9 C 94 % 1002,3 hPa 0,0 l/m 0 min 0 min 0,0 UV-I 40 W/m 10,3 km/h (2 Bft)
23.10.2013 09:34 15,9 C 13,9 C 94 % 1002,3 hPa 0,0 l/m 0 min 0 min 0,0 UV-I 47 W/m 10,3 km/h (2 Bft)
23.10.2013 09:36 15,9 C 13,9 C 94 % 1002,4 hPa 0,0 l/m 0 min 0 min 0,0 UV-I 49 W/m 15,4 km/h (3 Bft)
23.10.2013 09:38 15,9 C 14,4 C 94 % 1002,4 hPa 0,0 l/m 0 min 0 min 0,0 UV-I 51 W/m 12,9 km/h (3 Bft)
23.10.2013 09:40 15,9 C 14,4 C 94 % 1002,4 hPa 0,0 l/m 0 min 0 min 0,0 UV-I 53 W/m 12,9 km/h (3 Bft)
23.10.2013 09:42 15,9 C 14,4 C 94 % 1002,4 hPa 0,0 l/m 0 min 0 min 0,0 UV-I 56 W/m 12,9 km/h (3 Bft)
23.10.2013 09:44 16,0 C 14,4 C 94 % 1002,5 hPa 0,0 l/m 0 min 0 min 0,0 UV-I 60 W/m 10,3 km/h (2 Bft)
23.10.2013 09:46 16,0 C 14,4 C 94 % 1002,4 hPa 0,0 l/m 0 min 0 min 0,0 UV-I 58 W/m 12,9 km/h (3 Bft)
23.10.2013 09:48 16,0 C 14,4 C 94 % 1002,7 hPa 0,0 l/m 0 min 0 min 0,0 UV-I 51 W/m 10,3 km/h (2 Bft)
23.10.2013 09:50 16,0 C 14,4 C 94 % 1002,9 hPa 0,2 l/m 0 min 0 min 0,0 UV-I 53 W/m 18,0 km/h (3 Bft)
23.10.2013 09:52 16,0 C 14,4 C 94 % 1002,7 hPa 0,0 l/m 0 min 0 min 0,0 UV-I 56 W/m 23,2 km/h (4 Bft)
23.10.2013 09:54 16,0 C 14,4 C 94 % 1002,9 hPa 0,0 l/m 0 min 0 min 0,0 UV-I 60 W/m 5,1 km/h (1 Bft)
23.10.2013 09:56 16,1 C 14,4 C 94 % 1002,8 hPa 0,0 l/m 0 min 0 min 0,0 UV-I 67 W/m 15,4 km/h (3 Bft)
23.10.2013 09:58 16,1 C 14,4 C 94 % 1002,9 hPa 0,0 l/m 0 min 0 min 0,0 UV-I 72 W/m 15,4 km/h (3 Bft)
23.10.2013 10:00 16,1 C 14,4 C 94 % 1002,9 hPa 0,0 l/m 0 min 0 min 0,0 UV-I 74 W/m 10,3 km/h (2 Bft)
23.10.2013 10:02 16,1 C 14,4 C 94 % 1002,9 hPa 0,0 l/m 0 min 0 min 0,0 UV-I 72 W/m 25,7 km/h (4 Bft)
23.10.2013 10:06 16,2 C 14,4 C 94 % 1003,0 hPa 0,0 l/m 0 min 0 min 0,0 UV-I 56 W/m 18,0 km/h (3 Bft)
23.10.2013 10:08 16,2 C 15,0 C 94 % 1003,0 hPa 0,0 l/m 0 min 0 min 0,0 UV-I 51 W/m 18,0 km/h (3 Bft)
23.10.2013 10:10 16,3 C 15,0 C 94 % 1003,1 hPa 0,0 l/m 0 min 0 min 0,0 UV-I 39 W/m 18,0 km/h (3 Bft)
23.10.2013 10:12 16,3 C 15,0 C 94 % 1003,1 hPa 0,0 l/m 0 min 0 min 0,0 UV-I 23 W/m 15,4 km/h (3 Bft)
23.10.2013 10:14 16,3 C 14,4 C 94 % 1003,1 hPa 0,0 l/m 0 min 0 min 0,0 UV-I 30 W/m 12,9 km/h (3 Bft)
23.10.2013 10:16 16,3 C 14,4 C 94 % 1003,1 hPa 0,0 l/m 0 min 0 min 0,0 UV-I 32 W/m 7,7 km/h (2 Bft)
23.10.2013 10:18 16,3 C 15,0 C 94 % 1003,1 hPa 0,0 l/m 0 min 0 min 0,0 UV-I 47 W/m 20,6 km/h (4 Bft)
23.10.2013 10:20 16,3 C 15,0 C 94 % 1003,2 hPa 0,0 l/m 0 min 0 min 0,0 UV-I 42 W/m 15,4 km/h (3 Bft)
23.10.2013 10:22 16,3 C 15,0 C 94 % 1003,3 hPa 0,0 l/m 0 min 0 min 0,0 UV-I 37 W/m 28,3 km/h (4 Bft)
23.10.2013 10:24 16,3 C 15,0 C 93 % 1003,3 hPa 0,0 l/m 0 min 0 min 0,0 UV-I 81 W/m 18,0 km/h (3 Bft)
23.10.2013 10:26 16,4 C 15,0 C 93 % 1003,3 hPa 0,0 l/m 0 min 0 min 0,0 UV-I 93 W/m 18,0 km/h (3 Bft)
23.10.2013 10:28 16,4 C 15,0 C 93 % 1003,3 hPa 0,0 l/m 0 min 0 min 0,0 UV-I 76 W/m 18,0 km/h (3 Bft)
23.10.2013 10:30 16,4 C 15,0 C 93 % 1003,3 hPa 0,0 l/m 0 min 0 min 0,0 UV-I 62 W/m 18,0 km/h (3 Bft)
23.10.2013 10:32 16,5 C 15,0 C 93 % 1003,3 hPa 0,0 l/m 0 min 0 min 0,0 UV-I 100 W/m 18,0 km/h (3 Bft)
23.10.2013 10:34 16,5 C 15,0 C 93 % 1003,3 hPa 0,0 l/m 0 min 0 min 0,0 UV-I 84 W/m 10,3 km/h (2 Bft)
23.10.2013 10:36 16,6 C 15,0 C 93 % 1003,3 hPa 0,0 l/m 0 min 0 min 0,0 UV-I 102 W/m 12,9 km/h (3 Bft)
23.10.2013 10:38 16,6 C 15,0 C 93 % 1003,3 hPa 0,0 l/m 0 min 0 min 0,0 UV-I 116 W/m 23,2 km/h (4 Bft)
23.10.2013 10:40 16,6 C 15,0 C 93 % 1003,3 hPa 0,0 l/m 0 min 0 min 0,0 UV-I 86 W/m 20,6 km/h (4 Bft)
23.10.2013 10:42 16,6 C 15,0 C 92 % 1003,3 hPa 0,0 l/m 2 min 0 min 0,0 UV-I 186 W/m 25,7 km/h (4 Bft)
23.10.2013 10:44 16,7 C 15,0 C 92 % 1003,3 hPa 0,0 l/m 2 min 0 min 0,0 UV-I 239 W/m 15,4 km/h (3 Bft)
23.10.2013 10:46 16,8 C 15,0 C 92 % 1003,3 hPa 0,0 l/m 0 min 0 min 0,0 UV-I 102 W/m 23,2 km/h (4 Bft)
23.10.2013 10:48 16,8 C 15,0 C 92 % 1003,3 hPa 0,0 l/m 0 min 0 min 0,0 UV-I 105 W/m 18,0 km/h (3 Bft)
23.10.2013 10:50 16,8 C 15,0 C 92 % 1003,5 hPa 0,0 l/m 0 min 0 min 0,0 UV-I 125 W/m 15,4 km/h (3 Bft)
23.10.2013 10:52 16,9 C 15,0 C 92 % 1003,4 hPa 0,0 l/m 0 min 0 min 0,0 UV-I 134 W/m 18,0 km/h (3 Bft)
23.10.2013 10:54 16,9 C 15,0 C 92 % 1003,3 hPa 0,0 l/m 0 min 0 min 0,0 UV-I 155 W/m 7,7 km/h (2 Bft)
23.10.2013 10:56 16,9 C 15,0 C 92 % 1003,3 hPa 0,0 l/m 0 min 0 min 0,0 UV-I 163 W/m 18,0 km/h (3 Bft)
23.10.2013 10:58 16,9 C 15,6 C 91 % 1003,3 hPa 0,0 l/m 0 min 0 min 0,0 UV-I 149 W/m 15,4 km/h (3 Bft)
23.10.2013 11:00 17,0 C 15,6 C 91 % 1003,3 hPa 0,0 l/m 0 min 0 min 0,0 UV-I 153 W/m 15,4 km/h (3 Bft)
23.10.2013 11:02 17,1 C 15,6 C 91 % 1003,3 hPa 0,0 l/m 0 min 0 min 0,0 UV-I 162 W/m 10,3 km/h (2 Bft)
23.10.2013 11:06 17,1 C 15,6 C 91 % 1003,3 hPa 0,0 l/m 0 min 0 min 0,0 UV-I 153 W/m 18,0 km/h (3 Bft)
23.10.2013 11:08 17,2 C 15,6 C 91 % 1003,5 hPa 0,0 l/m 0 min 0 min 0,0 UV-I 135 W/m 10,3 km/h (2 Bft)
23.10.2013 11:10 17,2 C 15,6 C 90 % 1003,5 hPa 0,0 l/m 0 min 0 min 0,0 UV-I 165 W/m 18,0 km/h (3 Bft)
23.10.2013 11:12 17,2 C 15,6 C 90 % 1003,5 hPa 0,0 l/m 0 min 0 min 0,0 UV-I 188 W/m 18,0 km/h (3 Bft)
23.10.2013 11:14 17,3 C 15,6 C 90 % 1003,6 hPa 0,0 l/m 0 min 0 min 0,0 UV-I 151 W/m 18,0 km/h (3 Bft)
23.10.2013 11:16 17,3 C 15,6 C 89 % 1003,5 hPa 0,0 l/m 0 min 0 min 0,0 UV-I 139 W/m 15,4 km/h (3 Bft)
23.10.2013 11:18 17,4 C 15,6 C 89 % 1003,5 hPa 0,0 l/m 0 min 0 min 0,0 UV-I 155 W/m 18,0 km/h (3 Bft)
23.10.2013 11:20 17,4 C 15,6 C 89 % 1003,4 hPa 0,0 l/m 0 min 0 min 0,0 UV-I 158 W/m 7,7 km/h (2 Bft)
23.10.2013 11:22 17,4 C 16,1 C 89 % 1003,4 hPa 0,0 l/m 2 min 0 min 0,0 UV-I 287 W/m 10,3 km/h (2 Bft)
23.10.2013 11:24 17,6 C 16,1 C 89 % 1003,5 hPa 0,0 l/m 2 min 0 min 0,0 UV-I 294 W/m 12,9 km/h (3 Bft)
23.10.2013 11:26 17,7 C 16,1 C 88 % 1003,4 hPa 0,0 l/m 2 min 0 min 0,5 UV-I 338 W/m 18,0 km/h (3 Bft)
23.10.2013 11:28 17,9 C 16,7 C 88 % 1003,4 hPa 0,0 l/m 2 min 0 min 0,6 UV-I 373 W/m 10,3 km/h (2 Bft)
23.10.2013 11:30 18,1 C 16,7 C 87 % 1003,3 hPa 0,0 l/m 2 min 0 min 0,6 UV-I 381 W/m 12,9 km/h (3 Bft)
23.10.2013 11:32 18,2 C 16,7 C 87 % 1003,3 hPa 0,0 l/m 2 min 0 min 0,7 UV-I 392 W/m 18,0 km/h (3 Bft)
23.10.2013 11:34 18,4 C 16,7 C 87 % 1003,2 hPa 0,0 l/m 2 min 0 min 0,7 UV-I 383 W/m 18,0 km/h (3 Bft)
23.10.2013 11:36 18,5 C 16,7 C 86 % 1003,4 hPa 0,0 l/m 2 min 0 min 0,7 UV-I 374 W/m 25,7 km/h (4 Bft)
23.10.2013 11:38 18,6 C 16,7 C 86 % 1003,3 hPa 0,0 l/m 2 min 0 min 0,7 UV-I 366 W/m 15,4 km/h (3 Bft)
23.10.2013 11:40 18,8 C 16,7 C 86 % 1003,4 hPa 0,0 l/m 2 min 0 min 0,7 UV-I 360 W/m 15,4 km/h (3 Bft)
23.10.2013 11:42 18,9 C 16,7 C 85 % 1003,4 hPa 0,0 l/m 2 min 0 min 0,7 UV-I 352 W/m 7,7 km/h (2 Bft)
23.10.2013 11:44 19,0 C 16,7 C 85 % 1003,4 hPa 0,0 l/m 2 min 0 min 0,7 UV-I 350 W/m 10,3 km/h (2 Bft)
23.10.2013 11:46 19,1 C 16,7 C 84 % 1003,4 hPa 0,0 l/m 2 min 0 min 0,7 UV-I 341 W/m 2,6 km/h (1 Bft)
23.10.2013 11:48 19,1 C 16,7 C 84 % 1003,4 hPa 0,0 l/m 2 min 0 min 0,7 UV-I 341 W/m 15,4 km/h (3 Bft)
23.10.2013 11:50 19,1 C 16,7 C 83 % 1003,4 hPa 0,0 l/m 0 min 0 min 0,7 UV-I 109 W/m 7,7 km/h (2 Bft)
23.10.2013 11:52 19,1 C 17,2 C 84 % 1003,5 hPa 0,0 l/m 0 min 0 min 0,5 UV-I 156 W/m 18,0 km/h (3 Bft)
23.10.2013 11:54 19,1 C 17,2 C 83 % 1003,4 hPa 0,0 l/m 0 min 0 min 0,7 UV-I 156 W/m 18,0 km/h (3 Bft)
23.10.2013 11:56 19,2 C 17,2 C 81 % 1003,6 hPa 0,0 l/m 0 min 0 min 0,6 UV-I 155 W/m 12,9 km/h (3 Bft)
23.10.2013 11:58 19,2 C 17,2 C 81 % 1003,5 hPa 0,0 l/m 0 min 0 min 0,0 UV-I 183 W/m 23,2 km/h (4 Bft)
23.10.2013 12:00 19,2 C 17,2 C 80 % 1003,6 hPa 0,0 l/m 0 min 0 min 0,5 UV-I 185 W/m 10,3 km/h (2 Bft)
23.10.2013 12:02 19,3 C 17,2 C 81 % 1003,6 hPa 0,0 l/m 2 min 0 min 0,0 UV-I 260 W/m 7,7 km/h (2 Bft)
23.10.2013 12:06 19,3 C 17,2 C 79 % 1003,7 hPa 0,0 l/m 0 min 0 min 0,0 UV-I 102 W/m 33,5 km/h (5 Bft)
23.10.2013 12:08 19,2 C 17,2 C 79 % 1003,7 hPa 0,0 l/m 0 min 0 min 0,0 UV-I 120 W/m 20,6 km/h (4 Bft)
23.10.2013 12:10 19,2 C 17,2 C 79 % 1003,7 hPa 0,0 l/m 0 min 0 min 0,0 UV-I 120 W/m 15,4 km/h (3 Bft)
23.10.2013 12:12 19,1 C 17,2 C 79 % 1003,7 hPa 0,0 l/m 0 min 0 min 0,0 UV-I 118 W/m 12,9 km/h (3 Bft)
23.10.2013 12:14 19,1 C 17,2 C 79 % 1003,8 hPa 0,0 l/m 2 min 0 min 0,5 UV-I 243 W/m 25,7 km/h (4 Bft)
23.10.2013 12:16 19,1 C 17,2 C 79 % 1003,7 hPa 0,0 l/m 0 min 0 min 0,0 UV-I 137 W/m 25,7 km/h (4 Bft)
23.10.2013 12:18 19,1 C 17,2 C 79 % 1003,9 hPa 0,0 l/m 0 min 0 min 0,0 UV-I 113 W/m 20,6 km/h (4 Bft)
23.10.2013 12:20 19,1 C 17,2 C 79 % 1003,7 hPa 0,0 l/m 0 min 0 min 0,0 UV-I 79 W/m 15,4 km/h (3 Bft)
23.10.2013 12:22 19,1 C 17,2 C 79 % 1003,8 hPa 0,0 l/m 0 min 0 min 0,0 UV-I 123 W/m 15,4 km/h (3 Bft)
23.10.2013 12:24 19,1 C 17,2 C 78 % 1003,9 hPa 0,0 l/m 0 min 0 min 0,0 UV-I 128 W/m 38,6 km/h (5 Bft)
23.10.2013 12:26 19,0 C 17,2 C 78 % 1003,9 hPa 0,0 l/m 0 min 0 min 0,0 UV-I 132 W/m 28,3 km/h (4 Bft)
23.10.2013 12:28 19,0 C 17,2 C 78 % 1003,9 hPa 0,0 l/m 0 min 0 min 0,0 UV-I 105 W/m 12,9 km/h (3 Bft)
23.10.2013 12:30 18,9 C 17,2 C 78 % 1003,9 hPa 0,0 l/m 0 min 0 min 0,0 UV-I 91 W/m 20,6 km/h (4 Bft)
23.10.2013 12:32 18,9 C 17,2 C 78 % 1004,0 hPa 0,0 l/m 0 min 0 min 0,0 UV-I 83 W/m 12,9 km/h (3 Bft)
23.10.2013 12:34 18,9 C 17,2 C 79 % 1004,0 hPa 0,0 l/m 0 min 0 min 0,0 UV-I 88 W/m 20,6 km/h (4 Bft)
23.10.2013 12:36 18,9 C 17,2 C 79 % 1003,9 hPa 0,0 l/m 0 min 0 min 0,0 UV-I 111 W/m 12,9 km/h (3 Bft)
23.10.2013 12:38 18,9 C 17,2 C 78 % 1004,0 hPa 0,0 l/m 0 min 0 min 0,0 UV-I 84 W/m 15,4 km/h (3 Bft)
23.10.2013 12:40 18,9 C 16,7 C 79 % 1003,9 hPa 0,0 l/m 0 min 0 min 0,0 UV-I 132 W/m 15,4 km/h (3 Bft)
23.10.2013 12:42 18,8 C 17,2 C 79 % 1004,0 hPa 0,0 l/m 0 min 0 min 0,0 UV-I 169 W/m 18,0 km/h (3 Bft)
23.10.2013 12:44 18,9 C 17,2 C 79 % 1003,9 hPa 0,0 l/m 0 min 0 min 0,0 UV-I 121 W/m 18,0 km/h (3 Bft)
23.10.2013 12:46 18,9 C 17,2 C 79 % 1003,9 hPa 0,0 l/m 0 min 0 min 0,0 UV-I 100 W/m 23,2 km/h (4 Bft)
23.10.2013 12:48 18,8 C 17,2 C 79 % 1003,9 hPa 0,0 l/m 0 min 0 min 0,0 UV-I 102 W/m 18,0 km/h (3 Bft)
23.10.2013 12:50 18,8 C 17,2 C 78 % 1003,9 hPa 0,0 l/m 0 min 0 min 0,0 UV-I 135 W/m 23,2 km/h (4 Bft)
23.10.2013 12:52 18,9 C 17,2 C 79 % 1003,8 hPa 0,0 l/m 0 min 0 min 0,0 UV-I 132 W/m 12,9 km/h (3 Bft)
23.10.2013 12:54 18,8 C 17,2 C 79 % 1003,8 hPa 0,0 l/m 0 min 0 min 0,0 UV-I 176 W/m 18,0 km/h (3 Bft)
23.10.2013 12:56 18,9 C 17,2 C 79 % 1003,9 hPa 0,0 l/m 0 min 0 min 0,0 UV-I 146 W/m 18,0 km/h (3 Bft)
23.10.2013 12:58 18,9 C 17,2 C 78 % 1003,8 hPa 0,0 l/m 0 min 0 min 0,0 UV-I 132 W/m 20,6 km/h (4 Bft)
23.10.2013 13:00 18,9 C 17,2 C 77 % 1003,8 hPa 0,0 l/m 0 min 0 min 0,0 UV-I 134 W/m 28,3 km/h (4 Bft)
23.10.2013 13:02 19,0 C 17,2 C 77 % 1003,8 hPa 0,0 l/m 0 min 0 min 0,0 UV-I 93 W/m 20,6 km/h (4 Bft)
23.10.2013 13:06 19,0 C 17,2 C 76 % 1003,9 hPa 0,0 l/m 0 min 0 min 0,0 UV-I 137 W/m 28,3 km/h (4 Bft)
23.10.2013 13:08 19,0 C 17,2 C 76 % 1003,8 hPa 0,0 l/m 0 min 0 min 0,0 UV-I 156 W/m 10,3 km/h (2 Bft)
23.10.2013 13:10 19,0 C 17,2 C 76 % 1003,9 hPa 0,0 l/m 0 min 0 min 0,0 UV-I 127 W/m 18,0 km/h (3 Bft)
23.10.2013 13:12 19,0 C 17,2 C 76 % 1003,8 hPa 0,0 l/m 0 min 0 min 0,0 UV-I 118 W/m 25,7 km/h (4 Bft)
23.10.2013 13:14 19,1 C 17,2 C 76 % 1003,7 hPa 0,0 l/m 0 min 0 min 0,0 UV-I 132 W/m 15,4 km/h (3 Bft)
23.10.2013 13:16 19,0 C 17,2 C 76 % 1003,7 hPa 0,0 l/m 0 min 0 min 0,0 UV-I 144 W/m 15,4 km/h (3 Bft)
23.10.2013 13:18 19,0 C 17,2 C 76 % 1003,7 hPa 0,0 l/m 0 min 0 min 0,0 UV-I 121 W/m 10,3 km/h (2 Bft)
23.10.2013 13:20 19,0 C 17,2 C 76 % 1003,5 hPa 0,0 l/m 0 min 0 min 0,0 UV-I 100 W/m 28,3 km/h (4 Bft)
23.10.2013 13:22 19,0 C 17,2 C 75 % 1003,8 hPa 0,0 l/m 0 min 0 min 0,0 UV-I 98 W/m 23,2 km/h (4 Bft)
23.10.2013 13:24 19,1 C 17,2 C 75 % 1003,5 hPa 0,0 l/m 0 min 0 min 0,0 UV-I 186 W/m 20,6 km/h (4 Bft)
23.10.2013 13:26 19,1 C 17,2 C 75 % 1003,5 hPa 0,0 l/m 0 min 0 min 0,0 UV-I 186 W/m 33,5 km/h (5 Bft)
23.10.2013 13:28 19,1 C 16,7 C 75 % 1003,6 hPa 0,0 l/m 0 min 2 min 0,0 UV-I 90 W/m 30,9 km/h (5 Bft)
23.10.2013 13:30 19,1 C 15,6 C 76 % 1003,7 hPa 0,0 l/m 0 min 2 min 0,0 UV-I 121 W/m 25,7 km/h (4 Bft)
23.10.2013 13:32 18,9 C 15,0 C 78 % 1003,7 hPa 0,0 l/m 0 min 2 min 0,0 UV-I 107 W/m 10,3 km/h (2 Bft)
23.10.2013 13:34 18,8 C 15,0 C 79 % 1003,7 hPa 0,0 l/m 0 min 2 min 0,0 UV-I 100 W/m 23,2 km/h (4 Bft)
23.10.2013 13:36 18,6 C 14,4 C 79 % 1003,5 hPa 0,0 l/m 0 min 2 min 0,0 UV-I 90 W/m 23,2 km/h (4 Bft)
23.10.2013 13:38 18,5 C 15,0 C 79 % 1003,6 hPa 0,0 l/m 0 min 2 min 0,0 UV-I 181 W/m 28,3 km/h (4 Bft)
23.10.2013 13:40 18,5 C 15,0 C 80 % 1003,8 hPa 0,0 l/m 0 min 0 min 0,0 UV-I 163 W/m 30,9 km/h (5 Bft)
23.10.2013 13:42 18,5 C 15,0 C 79 % 1003,8 hPa 0,0 l/m 0 min 0 min 0,0 UV-I 90 W/m 36,0 km/h (5 Bft)
23.10.2013 13:44 18,6 C 15,0 C 78 % 1003,8 hPa 0,0 l/m 0 min 0 min 0,0 UV-I 69 W/m 23,2 km/h (4 Bft)
23.10.2013 13:46 18,6 C 15,0 C 79 % 1003,8 hPa 0,0 l/m 0 min 0 min 0,0 UV-I 63 W/m 5,1 km/h (1 Bft)
23.10.2013 13:48 18,6 C 15,0 C 78 % 1003,8 hPa 0,0 l/m 0 min 0 min 0,0 UV-I 79 W/m 7,7 km/h (2 Bft)
23.10.2013 13:50 18,5 C 15,0 C 78 % 1003,8 hPa 0,0 l/m 0 min 0 min 0,0 UV-I 69 W/m 12,9 km/h (3 Bft)
23.10.2013 13:52 18,6 C 15,6 C 77 % 1003,8 hPa 0,0 l/m 0 min 0 min 0,0 UV-I 74 W/m 23,2 km/h (4 Bft)
23.10.2013 13:54 18,6 C 15,6 C 77 % 1003,8 hPa 0,0 l/m 0 min 0 min 0,0 UV-I 72 W/m 7,7 km/h (2 Bft)
23.10.2013 13:56 18,6 C 15,6 C 77 % 1003,8 hPa 0,0 l/m 0 min 0 min 0,0 UV-I 77 W/m 12,9 km/h (3 Bft)
23.10.2013 13:58 18,5 C 15,6 C 80 % 1003,9 hPa 0,0 l/m 0 min 0 min 0,0 UV-I 56 W/m 5,1 km/h (1 Bft)
23.10.2013 14:00 18,3 C 15,6 C 81 % 1004,0 hPa 0,0 l/m 0 min 0 min 0,0 UV-I 100 W/m 12,9 km/h (3 Bft)
23.10.2013 14:02 18,2 C 15,6 C 81 % 1004,0 hPa 0,0 l/m 0 min 0 min 0,0 UV-I 148 W/m 10,3 km/h (2 Bft)
23.10.2013 14:06 18,4 C 16,1 C 80 % 1004,0 hPa 0,0 l/m 2 min 0 min 0,9 UV-I 360 W/m 20,6 km/h (4 Bft)
23.10.2013 14:08 18,7 C 16,1 C 80 % 1004,0 hPa 0,0 l/m 2 min 0 min 1,0 UV-I 427 W/m 7,7 km/h (2 Bft)
23.10.2013 14:10 18,9 C 16,7 C 78 % 1004,0 hPa 0,0 l/m 2 min 0 min 0,6 UV-I 399 W/m 20,6 km/h (4 Bft)
23.10.2013 14:12 19,1 C 16,7 C 78 % 1004,1 hPa 0,0 l/m 2 min 0 min 1,1 UV-I 436 W/m 23,2 km/h (4 Bft)
23.10.2013 14:14 19,2 C 17,2 C 78 % 1003,9 hPa 0,0 l/m 2 min 0 min 1,0 UV-I 436 W/m 36,0 km/h (5 Bft)
23.10.2013 14:16 19,4 C 17,2 C 76 % 1004,0 hPa 0,0 l/m 2 min 0 min 1,0 UV-I 415 W/m 33,5 km/h (5 Bft)
23.10.2013 14:18 19,6 C 17,2 C 74 % 1003,9 hPa 0,0 l/m 2 min 0 min 1,0 UV-I 406 W/m 12,9 km/h (3 Bft)
23.10.2013 14:20 19,7 C 17,8 C 72 % 1003,8 hPa 0,0 l/m 2 min 0 min 0,9 UV-I 406 W/m 25,7 km/h (4 Bft)
23.10.2013 14:22 19,7 C 17,8 C 72 % 1003,9 hPa 0,0 l/m 2 min 0 min 0,8 UV-I 406 W/m 18,0 km/h (3 Bft)
23.10.2013 14:24 19,7 C 17,8 C 72 % 1004,0 hPa 0,0 l/m 0 min 0 min 0,0 UV-I 139 W/m 7,7 km/h (2 Bft)
23.10.2013 14:26 19,7 C 17,2 C 71 % 1004,3 hPa 0,0 l/m 0 min 0 min 0,0 UV-I 158 W/m 25,7 km/h (4 Bft)
23.10.2013 14:28 19,6 C 17,2 C 70 % 1004,1 hPa 0,0 l/m 0 min 0 min 0,0 UV-I 190 W/m 30,9 km/h (5 Bft)
23.10.2013 14:30 19,6 C 17,8 C 71 % 1004,2 hPa 0,0 l/m 0 min 0 min 0,0 UV-I 179 W/m 25,7 km/h (4 Bft)
23.10.2013 14:32 19,5 C 17,8 C 71 % 1004,2 hPa 0,0 l/m 0 min 0 min 0,0 UV-I 158 W/m 30,9 km/h (5 Bft)
23.10.2013 14:34 19,4 C 17,8 C 71 % 1004,2 hPa 0,0 l/m 0 min 0 min 0,0 UV-I 163 W/m 10,3 km/h (2 Bft)
23.10.2013 14:36 19,4 C 17,8 C 72 % 1004,2 hPa 0,0 l/m 0 min 0 min 0,0 UV-I 190 W/m 12,9 km/h (3 Bft)
23.10.2013 14:38 19,3 C 17,8 C 71 % 1004,3 hPa 0,0 l/m 0 min 0 min 0,0 UV-I 209 W/m 25,7 km/h (4 Bft)
23.10.2013 14:40 19,3 C 17,8 C 72 % 1004,2 hPa 0,0 l/m 0 min 0 min 0,5 UV-I 174 W/m 23,2 km/h (4 Bft)
23.10.2013 14:42 19,3 C 17,8 C 72 % 1004,2 hPa 0,0 l/m 0 min 0 min 0,0 UV-I 176 W/m 23,2 km/h (4 Bft)
23.10.2013 14:44 19,3 C 17,8 C 72 % 1004,3 hPa 0,0 l/m 0 min 0 min 0,0 UV-I 202 W/m 20,6 km/h (4 Bft)
23.10.2013 14:46 19,3 C 17,8 C 71 % 1004,5 hPa 0,0 l/m 0 min 0 min 0,0 UV-I 186 W/m 41,2 km/h (6 Bft)
23.10.2013 14:48 19,3 C 17,8 C 71 % 1004,5 hPa 0,0 l/m 2 min 0 min 0,5 UV-I 506 W/m 28,3 km/h (4 Bft)
23.10.2013 14:50 19,5 C 17,8 C 71 % 1004,3 hPa 0,0 l/m 2 min 0 min 0,0 UV-I 533 W/m 28,3 km/h (4 Bft)
23.10.2013 14:52 19,6 C 17,8 C 70 % 1004,3 hPa 0,0 l/m 0 min 0 min 0,0 UV-I 144 W/m 25,7 km/h (4 Bft)
23.10.2013 14:54 19,5 C 17,8 C 70 % 1004,2 hPa 0,0 l/m 0 min 0 min 0,0 UV-I 163 W/m 18,0 km/h (3 Bft)
23.10.2013 14:56 19,4 C 17,8 C 71 % 1004,4 hPa 0,0 l/m 0 min 0 min 0,0 UV-I 163 W/m 15,4 km/h (3 Bft)
23.10.2013 14:58 19,4 C 17,2 C 72 % 1004,4 hPa 0,0 l/m 0 min 0 min 0,0 UV-I 105 W/m 18,0 km/h (3 Bft)
23.10.2013 15:00 19,4 C 17,2 C 71 % 1004,4 hPa 0,0 l/m 0 min 0 min 0,0 UV-I 86 W/m 28,3 km/h (4 Bft)
23.10.2013 15:02 19,3 C 17,2 C 71 % 1004,6 hPa 0,0 l/m 0 min 0 min 0,0 UV-I 95 W/m 30,9 km/h (5 Bft)
23.10.2013 15:06 19,2 C 17,2 C 72 % 1004,6 hPa 0,0 l/m 0 min 2 min 0,0 UV-I 132 W/m 30,9 km/h (5 Bft)
23.10.2013 15:08 19,1 C 17,2 C 72 % 1004,6 hPa 0,0 l/m 0 min 2 min 0,0 UV-I 197 W/m 33,5 km/h (5 Bft)
23.10.2013 15:10 19,2 C 17,8 C 73 % 1004,5 hPa 0,0 l/m 2 min 0 min 0,0 UV-I 221 W/m 20,6 km/h (4 Bft)
23.10.2013 15:12 19,2 C 17,2 C 72 % 1004,6 hPa 0,0 l/m 0 min 0 min 0,0 UV-I 127 W/m 12,9 km/h (3 Bft)
23.10.2013 15:14 19,2 C 17,2 C 72 % 1004,6 hPa 0,0 l/m 0 min 0 min 0,0 UV-I 97 W/m 15,4 km/h (3 Bft)
23.10.2013 15:16 19,1 C 17,2 C 73 % 1004,6 hPa 0,0 l/m 0 min 0 min 0,0 UV-I 69 W/m 12,9 km/h (3 Bft)
23.10.2013 15:18 19,0 C 17,2 C 73 % 1004,6 hPa 0,0 l/m 0 min 0 min 0,0 UV-I 74 W/m 18,0 km/h (3 Bft)
23.10.2013 15:20 19,1 C 17,2 C 73 % 1004,7 hPa 0,0 l/m 0 min 0 min 0,0 UV-I 74 W/m 10,3 km/h (2 Bft)
23.10.2013 15:22 19,1 C 17,2 C 74 % 1004,6 hPa 0,0 l/m 0 min 0 min 0,0 UV-I 148 W/m 12,9 km/h (3 Bft)
23.10.2013 15:24 19,1 C 17,2 C 74 % 1004,6 hPa 0,0 l/m 2 min 0 min 0,0 UV-I 394 W/m 18,0 km/h (3 Bft)
23.10.2013 15:26 19,2 C 17,8 C 74 % 1004,5 hPa 0,0 l/m 2 min 0 min 0,0 UV-I 246 W/m 12,9 km/h (3 Bft)
23.10.2013 15:28 19,3 C 17,8 C 73 % 1004,6 hPa 0,0 l/m 2 min 0 min 0,0 UV-I 408 W/m 10,3 km/h (2 Bft)
23.10.2013 15:30 19,4 C 17,8 C 73 % 1004,7 hPa 0,0 l/m 2 min 0 min 0,0 UV-I 408 W/m 12,9 km/h (3 Bft)
23.10.2013 15:32 19,4 C 17,8 C 73 % 1004,6 hPa 0,0 l/m 0 min 0 min 0,0 UV-I 146 W/m 20,6 km/h (4 Bft)
23.10.2013 15:34 19,5 C 17,8 C 72 % 1004,5 hPa 0,0 l/m 2 min 0 min 0,0 UV-I 390 W/m 15,4 km/h (3 Bft)
23.10.2013 15:36 19,6 C 17,8 C 72 % 1004,5 hPa 0,0 l/m 0 min 0 min 0,0 UV-I 109 W/m 12,9 km/h (3 Bft)
23.10.2013 15:38 19,5 C 17,8 C 72 % 1004,6 hPa 0,0 l/m 0 min 0 min 0,0 UV-I 116 W/m 23,2 km/h (4 Bft)
23.10.2013 15:40 19,5 C 17,8 C 72 % 1004,6 hPa 0,0 l/m 0 min 0 min 0,0 UV-I 116 W/m 28,3 km/h (4 Bft)
23.10.2013 15:42 19,5 C 17,8 C 73 % 1004,6 hPa 0,0 l/m 0 min 0 min 0,0 UV-I 162 W/m 2,6 km/h (1 Bft)
23.10.2013 15:44 19,5 C 17,8 C 72 % 1004,6 hPa 0,0 l/m 0 min 0 min 0,0 UV-I 162 W/m 20,6 km/h (4 Bft)
23.10.2013 15:46 19,4 C 17,8 C 72 % 1004,7 hPa 0,0 l/m 0 min 0 min 0,0 UV-I 127 W/m 7,7 km/h (2 Bft)
23.10.2013 15:48 19,4 C 17,8 C 73 % 1004,8 hPa 0,0 l/m 0 min 0 min 0,0 UV-I 105 W/m 5,1 km/h (1 Bft)
23.10.2013 15:50 19,3 C 17,2 C 73 % 1004,8 hPa 0,0 l/m 0 min 0 min 0,0 UV-I 109 W/m 2,6 km/h (1 Bft)
23.10.2013 15:52 19,2 C 17,2 C 74 % 1004,7 hPa 0,0 l/m 0 min 0 min 0,0 UV-I 134 W/m 0,0 km/h (0 Bft)
23.10.2013 15:54 19,2 C 17,2 C 73 % 1004,8 hPa 0,0 l/m 0 min 0 min 0,0 UV-I 148 W/m 15,4 km/h (3 Bft)
23.10.2013 15:56 19,2 C 17,8 C 72 % 1004,8 hPa 0,0 l/m 0 min 0 min 0,0 UV-I 141 W/m 18,0 km/h (3 Bft)
23.10.2013 15:58 19,3 C 17,8 C 73 % 1004,8 hPa 0,0 l/m 0 min 0 min 0,0 UV-I 135 W/m 10,3 km/h (2 Bft)
23.10.2013 16:00 19,3 C 17,2 C 72 % 1004,8 hPa 0,0 l/m 0 min 0 min 0,0 UV-I 120 W/m 18,0 km/h (3 Bft)
23.10.2013 16:02 19,2 C 17,2 C 73 % 1004,8 hPa 0,0 l/m 0 min 0 min 0,0 UV-I 100 W/m 12,9 km/h (3 Bft)
23.10.2013 16:06 19,1 C 17,2 C 71 % 1005,0 hPa 0,0 l/m 0 min 0 min 0,0 UV-I 111 W/m 33,5 km/h (5 Bft)
23.10.2013 16:08 19,1 C 17,2 C 71 % 1004,9 hPa 0,0 l/m 0 min 0 min 0,0 UV-I 95 W/m 18,0 km/h (3 Bft)
23.10.2013 16:10 19,1 C 17,2 C 71 % 1004,9 hPa 0,0 l/m 0 min 0 min 0,0 UV-I 90 W/m 18,0 km/h (3 Bft)
23.10.2013 16:12 19,0 C 17,2 C 71 % 1004,8 hPa 0,0 l/m 0 min 0 min 0,0 UV-I 93 W/m 15,4 km/h (3 Bft)
23.10.2013 16:14 18,9 C 17,2 C 71 % 1005,0 hPa 0,0 l/m 0 min 0 min 0,0 UV-I 102 W/m 15,4 km/h (3 Bft)
23.10.2013 16:16 18,9 C 17,2 C 71 % 1004,9 hPa 0,0 l/m 0 min 0 min 0,0 UV-I 107 W/m 15,4 km/h (3 Bft)
23.10.2013 16:18 18,9 C 17,2 C 71 % 1004,9 hPa 0,0 l/m 0 min 0 min 0,0 UV-I 109 W/m 20,6 km/h (4 Bft)
23.10.2013 16:20 18,9 C 17,2 C 71 % 1004,9 hPa 0,0 l/m 0 min 0 min 0,0 UV-I 116 W/m 15,4 km/h (3 Bft)
23.10.2013 16:22 18,9 C 17,2 C 70 % 1004,9 hPa 0,0 l/m 2 min 0 min 0,0 UV-I 179 W/m 23,2 km/h (4 Bft)
23.10.2013 16:24 19,0 C 17,2 C 70 % 1004,8 hPa 0,0 l/m 2 min 0 min 0,0 UV-I 163 W/m 18,0 km/h (3 Bft)
23.10.2013 16:26 19,0 C 17,2 C 70 % 1004,9 hPa 0,0 l/m 0 min 0 min 0,0 UV-I 100 W/m 20,6 km/h (4 Bft)
23.10.2013 16:28 19,1 C 17,2 C 70 % 1004,9 hPa 0,0 l/m 2 min 0 min 0,0 UV-I 265 W/m 10,3 km/h (2 Bft)
23.10.2013 16:30 19,2 C 17,2 C 70 % 1004,8 hPa 0,0 l/m 2 min 0 min 0,0 UV-I 214 W/m 12,9 km/h (3 Bft)
23.10.2013 16:32 19,2 C 17,2 C 69 % 1004,8 hPa 0,0 l/m 0 min 0 min 0,0 UV-I 53 W/m 12,9 km/h (3 Bft)
23.10.2013 16:34 19,1 C 16,7 C 69 % 1004,8 hPa 0,0 l/m 0 min 0 min 0,0 UV-I 53 W/m 20,6 km/h (4 Bft)
23.10.2013 16:36 19,0 C 16,7 C 69 % 1004,8 hPa 0,0 l/m 0 min 0 min 0,0 UV-I 65 W/m 28,3 km/h (4 Bft)
23.10.2013 16:38 18,9 C 16,7 C 69 % 1004,9 hPa 0,0 l/m 0 min 0 min 0,0 UV-I 67 W/m 12,9 km/h (3 Bft)
23.10.2013 16:40 18,8 C 16,7 C 70 % 1004,9 hPa 0,0 l/m 0 min 0 min 0,0 UV-I 67 W/m 5,1 km/h (1 Bft)
23.10.2013 16:42 18,8 C 16,7 C 70 % 1004,9 hPa 0,0 l/m 0 min 0 min 0,0 UV-I 67 W/m 10,3 km/h (2 Bft)
23.10.2013 16:44 18,7 C 16,7 C 70 % 1004,9 hPa 0,0 l/m 0 min 0 min 0,0 UV-I 49 W/m 10,3 km/h (2 Bft)
23.10.2013 16:46 18,6 C 16,1 C 70 % 1004,9 hPa 0,0 l/m 0 min 0 min 0,0 UV-I 49 W/m 7,7 km/h (2 Bft)
23.10.2013 16:48 18,6 C 16,1 C 70 % 1004,9 hPa 0,0 l/m 0 min 0 min 0,0 UV-I 56 W/m 10,3 km/h (2 Bft)
23.10.2013 16:50 18,5 C 16,1 C 71 % 1005,0 hPa 0,0 l/m 0 min 0 min 0,0 UV-I 63 W/m 12,9 km/h (3 Bft)
23.10.2013 16:52 18,5 C 16,1 C 71 % 1005,1 hPa 0,0 l/m 0 min 0 min 0,0 UV-I 54 W/m 15,4 km/h (3 Bft)
23.10.2013 16:54 18,5 C 16,7 C 70 % 1005,1 hPa 0,0 l/m 0 min 0 min 0,0 UV-I 46 W/m 23,2 km/h (4 Bft)
23.10.2013 16:56 18,6 C 16,1 C 71 % 1005,0 hPa 0,0 l/m 0 min 0 min 0,0 UV-I 60 W/m 18,0 km/h (3 Bft)
23.10.2013 16:58 18,6 C 16,7 C 71 % 1005,1 hPa 0,0 l/m 0 min 0 min 0,0 UV-I 69 W/m 12,9 km/h (3 Bft)
23.10.2013 17:00 18,5 C 16,7 C 71 % 1005,2 hPa 0,0 l/m 0 min 0 min 0,0 UV-I 53 W/m 12,9 km/h (3 Bft)
23.10.2013 17:02 18,5 C 16,7 C 71 % 1005,4 hPa 0,0 l/m 0 min 0 min 0,0 UV-I 46 W/m 36,0 km/h (5 Bft)
23.10.2013 17:06 18,6 C 16,7 C 71 % 1005,2 hPa 0,0 l/m 0 min 0 min 0,0 UV-I 98 W/m 33,5 km/h (5 Bft)
23.10.2013 17:08 18,6 C 16,7 C 71 % 1005,3 hPa 0,0 l/m 2 min 0 min 0,0 UV-I 174 W/m 18,0 km/h (3 Bft)
23.10.2013 17:10 18,7 C 16,7 C 71 % 1005,3 hPa 0,0 l/m 2 min 0 min 0,0 UV-I 186 W/m 15,4 km/h (3 Bft)
23.10.2013 17:12 18,7 C 16,7 C 71 % 1005,3 hPa 0,0 l/m 2 min 0 min 0,0 UV-I 158 W/m 33,5 km/h (5 Bft)
23.10.2013 17:14 18,8 C 16,7 C 71 % 1005,4 hPa 0,0 l/m 2 min 0 min 0,0 UV-I 113 W/m 25,7 km/h (4 Bft)
23.10.2013 17:16 18,8 C 16,7 C 70 % 1005,2 hPa 0,0 l/m 0 min 0 min 0,0 UV-I 74 W/m 30,9 km/h (5 Bft)
23.10.2013 17:18 18,8 C 16,7 C 71 % 1005,3 hPa 0,0 l/m 0 min 0 min 0,0 UV-I 39 W/m 12,9 km/h (3 Bft)
23.10.2013 17:20 18,8 C 16,7 C 71 % 1005,4 hPa 0,0 l/m 0 min 0 min 0,0 UV-I 37 W/m 25,7 km/h (4 Bft)
23.10.2013 17:22 18,7 C 16,7 C 71 % 1005,3 hPa 0,0 l/m 0 min 0 min 0,0 UV-I 35 W/m 12,9 km/h (3 Bft)
23.10.2013 17:24 18,7 C 16,7 C 71 % 1005,4 hPa 0,0 l/m 0 min 0 min 0,0 UV-I 33 W/m 18,0 km/h (3 Bft)
23.10.2013 17:26 18,7 C 16,1 C 71 % 1005,4 hPa 0,0 l/m 0 min 0 min 0,0 UV-I 30 W/m 5,1 km/h (1 Bft)
23.10.2013 17:28 18,6 C 16,1 C 72 % 1005,3 hPa 0,0 l/m 0 min 0 min 0,0 UV-I 28 W/m 18,0 km/h (3 Bft)
23.10.2013 17:30 18,5 C 16,1 C 72 % 1005,3 hPa 0,0 l/m 0 min 0 min 0,0 UV-I 26 W/m 12,9 km/h (3 Bft)
23.10.2013 17:32 18,4 C 16,1 C 72 % 1005,4 hPa 0,0 l/m 0 min 0 min 0,0 UV-I 26 W/m 10,3 km/h (2 Bft)
23.10.2013 17:34 18,4 C 16,1 C 73 % 1005,4 hPa 0,0 l/m 0 min 0 min 0,0 UV-I 26 W/m 7,7 km/h (2 Bft)
23.10.2013 17:36 18,3 C 16,1 C 73 % 1005,3 hPa 0,0 l/m 0 min 0 min 0,0 UV-I 25 W/m 12,9 km/h (3 Bft)
23.10.2013 17:38 18,3 C 16,1 C 73 % 1005,4 hPa 0,0 l/m 0 min 0 min 0,0 UV-I 25 W/m 20,6 km/h (4 Bft)
23.10.2013 17:40 18,3 C 16,1 C 73 % 1005,4 hPa 0,0 l/m 0 min 0 min 0,0 UV-I 21 W/m 28,3 km/h (4 Bft)
23.10.2013 17:42 18,2 C 16,1 C 73 % 1005,5 hPa 0,0 l/m 0 min 0 min 0,0 UV-I 19 W/m 18,0 km/h (3 Bft)
23.10.2013 17:44 18,2 C 16,1 C 73 % 1005,4 hPa 0,0 l/m 0 min 0 min 0,0 UV-I 19 W/m 15,4 km/h (3 Bft)
23.10.2013 17:46 18,2 C 16,1 C 73 % 1005,5 hPa 0,0 l/m 0 min 0 min 0,0 UV-I 18 W/m 12,9 km/h (3 Bft)
23.10.2013 17:48 18,1 C 15,6 C 73 % 1005,5 hPa 0,0 l/m 0 min 0 min 0,0 UV-I 19 W/m 10,3 km/h (2 Bft)
23.10.2013 17:50 18,1 C 15,6 C 73 % 1005,4 hPa 0,0 l/m 0 min 0 min 0,0 UV-I 19 W/m 2,6 km/h (1 Bft)
23.10.2013 17:52 18,0 C 15,6 C 73 % 1005,6 hPa 0,0 l/m 0 min 0 min 0,0 UV-I 18 W/m 18,0 km/h (3 Bft)
23.10.2013 17:54 17,9 C 15,6 C 74 % 1005,6 hPa 0,0 l/m 0 min 0 min 0,0 UV-I 16 W/m 5,1 km/h (1 Bft)
23.10.2013 17:56 17,9 C 15,6 C 74 % 1005,7 hPa 0,0 l/m 0 min 0 min 0,0 UV-I 16 W/m 12,9 km/h (3 Bft)
23.10.2013 17:58 17,8 C 15,6 C 75 % 1005,7 hPa 0,0 l/m 0 min 0 min 0,0 UV-I 14 W/m 0,0 km/h (0 Bft)
23.10.2013 18:00 17,7 C 15,6 C 74 % 1005,8 hPa 0,0 l/m 0 min 0 min 0,0 UV-I 11 W/m 10,3 km/h (2 Bft)
23.10.2013 18:02 17,7 C 15,6 C 75 % 1005,8 hPa 0,0 l/m 0 min 0 min 0,0 UV-I 11 W/m 0,0 km/h (0 Bft)
23.10.2013 18:06 17,6 C 15,6 C 75 % 1005,9 hPa 0,0 l/m 0 min 0 min 0,0 UV-I 9 W/m 10,3 km/h (2 Bft)
23.10.2013 18:08 17,6 C 15,6 C 75 % 1005,9 hPa 0,0 l/m 0 min 0 min 0,0 UV-I 7 W/m 10,3 km/h (2 Bft)
23.10.2013 18:10 17,6 C 15,6 C 75 % 1006,0 hPa 0,0 l/m 0 min 0 min 0,0 UV-I 7 W/m 15,4 km/h (3 Bft)
23.10.2013 18:12 17,6 C 15,6 C 75 % 1006,0 hPa 0,0 l/m 0 min 0 min 0,0 UV-I 5 W/m 23,2 km/h (4 Bft)
23.10.2013 18:14 17,6 C 15,6 C 75 % 1005,9 hPa 0,0 l/m 0 min 0 min 0,0 UV-I 5 W/m 10,3 km/h (2 Bft)
23.10.2013 18:16 17,7 C 15,6 C 74 % 1006,0 hPa 0,0 l/m 0 min 0 min 0,0 UV-I 5 W/m 10,3 km/h (2 Bft)
23.10.2013 18:18 17,7 C 15,6 C 74 % 1006,1 hPa 0,0 l/m 0 min 0 min 0,0 UV-I 0 W/m 0,0 km/h (0 Bft)
23.10.2013 18:20 17,7 C 15,6 C 74 % 1006,1 hPa 0,0 l/m 0 min 0 min 0,0 UV-I 0 W/m 25,7 km/h (4 Bft)
23.10.2013 18:22 17,7 C 15,6 C 74 % 1006,1 hPa 0,0 l/m 0 min 0 min 0,0 UV-I 0 W/m 10,3 km/h (2 Bft)
23.10.2013 18:24 17,7 C 15,6 C 74 % 1006,1 hPa 0,0 l/m 0 min 0 min 0,0 UV-I 0 W/m 2,6 km/h (1 Bft)
23.10.2013 18:26 17,7 C 15,6 C 74 % 1006,2 hPa 0,0 l/m 0 min 0 min 0,0 UV-I 0 W/m 18,0 km/h (3 Bft)
23.10.2013 18:28 17,7 C 15,6 C 74 % 1006,2 hPa 0,0 l/m 0 min 0 min 0,0 UV-I 0 W/m 7,7 km/h (2 Bft)
23.10.2013 18:30 17,7 C 15,6 C 74 % 1006,0 hPa 0,0 l/m 0 min 0 min 0,0 UV-I 0 W/m 15,4 km/h (3 Bft)
23.10.2013 18:32 17,7 C 15,6 C 75 % 1006,0 hPa 0,0 l/m 0 min 0 min 0,0 UV-I 0 W/m 15,4 km/h (3 Bft)
23.10.2013 18:34 17,7 C 15,6 C 75 % 1006,1 hPa 0,0 l/m 0 min 0 min 0,0 UV-I 0 W/m 15,4 km/h (3 Bft)
23.10.2013 18:36 17,7 C 15,6 C 75 % 1006,2 hPa 0,0 l/m 0 min 0 min 0,0 UV-I 0 W/m 10,3 km/h (2 Bft)
23.10.2013 18:38 17,7 C 15,6 C 75 % 1006,2 hPa 0,0 l/m 0 min 0 min 0,0 UV-I 0 W/m 18,0 km/h (3 Bft)
23.10.2013 18:40 17,7 C 15,6 C 75 % 1006,2 hPa 0,0 l/m 0 min 0 min 0,0 UV-I 0 W/m 23,2 km/h (4 Bft)
23.10.2013 18:42 17,7 C 15,6 C 75 % 1006,3 hPa 0,0 l/m 0 min 0 min 0,0 UV-I 0 W/m 18,0 km/h (3 Bft)
23.10.2013 18:44 17,7 C 15,6 C 75 % 1006,4 hPa 0,0 l/m 0 min 0 min 0,0 UV-I 0 W/m 23,2 km/h (4 Bft)
23.10.2013 18:46 17,7 C 15,6 C 75 % 1006,4 hPa 0,0 l/m 0 min 0 min 0,0 UV-I 0 W/m 18,0 km/h (3 Bft)
23.10.2013 18:48 17,7 C 15,6 C 74 % 1006,4 hPa 0,0 l/m 0 min 0 min 0,0 UV-I 0 W/m 10,3 km/h (2 Bft)
23.10.2013 18:50 17,7 C 15,6 C 75 % 1006,4 hPa 0,0 l/m 0 min 0 min 0,0 UV-I 0 W/m 2,6 km/h (1 Bft)
23.10.2013 18:52 17,7 C 15,6 C 75 % 1006,4 hPa 0,0 l/m 0 min 0 min 0,0 UV-I 0 W/m 18,0 km/h (3 Bft)
23.10.2013 18:54 17,7 C 15,6 C 75 % 1006,5 hPa 0,0 l/m 0 min 2 min 0,0 UV-I 0 W/m 7,7 km/h (2 Bft)
23.10.2013 18:56 17,7 C 15,0 C 76 % 1006,5 hPa 0,0 l/m 0 min 2 min 0,0 UV-I 0 W/m 10,3 km/h (2 Bft)
23.10.2013 18:58 17,6 C 15,0 C 76 % 1006,7 hPa 0,0 l/m 0 min 2 min 0,0 UV-I 0 W/m 12,9 km/h (3 Bft)
23.10.2013 19:00 17,6 C 15,0 C 76 % 1006,7 hPa 0,0 l/m 0 min 2 min 0,0 UV-I 0 W/m 20,6 km/h (4 Bft)
23.10.2013 19:02 17,6 C 14,4 C 76 % 1006,8 hPa 0,0 l/m 0 min 2 min 0,0 UV-I 0 W/m 0,0 km/h (0 Bft)
23.10.2013 19:06 17,4 C 13,9 C 79 % 1007,2 hPa 0,4 l/m 0 min 2 min 0,0 UV-I 0 W/m 2,6 km/h (1 Bft)
23.10.2013 19:08 17,1 C 13,3 C 82 % 1007,3 hPa 0,4 l/m 0 min 2 min 0,0 UV-I 0 W/m 10,3 km/h (2 Bft)
23.10.2013 19:10 16,8 C 13,3 C 83 % 1007,3 hPa 0,2 l/m 0 min 2 min 0,0 UV-I 0 W/m 10,3 km/h (2 Bft)
23.10.2013 19:12 16,4 C 12,8 C 84 % 1007,2 hPa 0,0 l/m 0 min 2 min 0,0 UV-I 0 W/m 12,9 km/h (3 Bft)
23.10.2013 19:14 16,2 C 12,8 C 86 % 1007,3 hPa 0,0 l/m 0 min 2 min 0,0 UV-I 0 W/m 7,7 km/h (2 Bft)
23.10.2013 19:16 15,9 C 12,8 C 87 % 1007,4 hPa 0,0 l/m 0 min 2 min 0,0 UV-I 0 W/m 7,7 km/h (2 Bft)
23.10.2013 19:18 15,7 C 13,3 C 88 % 1007,5 hPa 0,0 l/m 0 min 2 min 0,0 UV-I 0 W/m 0,0 km/h (0 Bft)
23.10.2013 19:20 15,6 C 13,3 C 89 % 1007,5 hPa 0,0 l/m 0 min 2 min 0,0 UV-I 0 W/m 2,6 km/h (1 Bft)
23.10.2013 19:22 15,4 C 12,8 C 89 % 1007,4 hPa 0,0 l/m 0 min 2 min 0,0 UV-I 0 W/m 2,6 km/h (1 Bft)
23.10.2013 19:24 15,3 C 12,8 C 90 % 1007,4 hPa 0,0 l/m 0 min 2 min 0,0 UV-I 0 W/m 0,0 km/h (0 Bft)
23.10.2013 19:26 15,2 C 12,8 C 91 % 1007,3 hPa 0,0 l/m 0 min 2 min 0,0 UV-I 0 W/m 2,6 km/h (1 Bft)
23.10.2013 19:28 15,1 C 12,8 C 91 % 1007,5 hPa 0,0 l/m 0 min 2 min 0,0 UV-I 0 W/m 0,0 km/h (0 Bft)
23.10.2013 19:30 15,1 C 12,8 C 91 % 1007,5 hPa 0,0 l/m 0 min 2 min 0,0 UV-I 0 W/m 0,0 km/h (0 Bft)
23.10.2013 19:32 15,0 C 12,8 C 91 % 1007,4 hPa 0,0 l/m 0 min 0 min 0,0 UV-I 0 W/m 2,6 km/h (1 Bft)
23.10.2013 19:34 15,0 C 12,8 C 92 % 1007,4 hPa 0,0 l/m 0 min 0 min 0,0 UV-I 0 W/m 0,0 km/h (0 Bft)
23.10.2013 19:36 14,9 C 12,8 C 92 % 1007,5 hPa 0,0 l/m 0 min 0 min 0,0 UV-I 0 W/m 0,0 km/h (0 Bft)
23.10.2013 19:38 14,9 C 12,8 C 92 % 1007,5 hPa 0,0 l/m 0 min 0 min 0,0 UV-I 0 W/m 2,6 km/h (1 Bft)
23.10.2013 19:40 14,9 C 12,8 C 92 % 1007,5 hPa 0,0 l/m 0 min 0 min 0,0 UV-I 0 W/m 0,0 km/h (0 Bft)
23.10.2013 19:42 14,9 C 12,8 C 92 % 1007,6 hPa 0,0 l/m 0 min 0 min 0,0 UV-I 0 W/m 7,7 km/h (2 Bft)
23.10.2013 19:44 14,9 C 12,8 C 92 % 1007,7 hPa 0,0 l/m 0 min 0 min 0,0 UV-I 0 W/m 7,7 km/h (2 Bft)
23.10.2013 19:46 14,9 C 12,8 C 92 % 1007,7 hPa 0,0 l/m 0 min 0 min 0,0 UV-I 0 W/m 0,0 km/h (0 Bft)
23.10.2013 19:48 14,8 C 12,8 C 93 % 1007,8 hPa 0,0 l/m 0 min 0 min 0,0 UV-I 0 W/m 2,6 km/h (1 Bft)
23.10.2013 19:50 14,8 C 12,8 C 93 % 1007,7 hPa 0,0 l/m 0 min 0 min 0,0 UV-I 0 W/m 0,0 km/h (0 Bft)
23.10.2013 19:52 14,8 C 12,8 C 93 % 1007,8 hPa 0,0 l/m 0 min 0 min 0,0 UV-I 0 W/m 0,0 km/h (0 Bft)
23.10.2013 19:54 14,7 C 12,8 C 93 % 1007,7 hPa 0,0 l/m 0 min 0 min 0,0 UV-I 0 W/m 0,0 km/h (0 Bft)
23.10.2013 19:56 14,7 C 12,8 C 93 % 1007,7 hPa 0,0 l/m 0 min 0 min 0,0 UV-I 0 W/m 0,0 km/h (0 Bft)
23.10.2013 19:58 14,7 C 12,8 C 93 % 1007,8 hPa 0,0 l/m 0 min 0 min 0,0 UV-I 0 W/m 0,0 km/h (0 Bft)
23.10.2013 20:00 14,7 C 12,8 C 94 % 1007,8 hPa 0,0 l/m 0 min 0 min 0,0 UV-I 0 W/m 0,0 km/h (0 Bft)
23.10.2013 20:02 14,7 C 12,8 C 94 % 1007,8 hPa 0,0 l/m 0 min 0 min 0,0 UV-I 0 W/m 0,0 km/h (0 Bft)
23.10.2013 20:06 14,6 C 12,8 C 94 % 1007,8 hPa 0,0 l/m 0 min 0 min 0,0 UV-I 0 W/m 2,6 km/h (1 Bft)
23.10.2013 20:08 14,6 C 12,8 C 94 % 1007,8 hPa 0,0 l/m 0 min 0 min 0,0 UV-I 0 W/m 0,0 km/h (0 Bft)
23.10.2013 20:10 14,6 C 12,8 C 94 % 1007,8 hPa 0,0 l/m 0 min 0 min 0,0 UV-I 0 W/m 0,0 km/h (0 Bft)
23.10.2013 20:12 14,5 C 12,2 C 94 % 1007,8 hPa 0,0 l/m 0 min 0 min 0,0 UV-I 0 W/m 0,0 km/h (0 Bft)
23.10.2013 20:14 14,5 C 12,2 C 94 % 1007,7 hPa 0,0 l/m 0 min 0 min 0,0 UV-I 0 W/m 0,0 km/h (0 Bft)
23.10.2013 20:16 14,4 C 12,2 C 94 % 1007,8 hPa 0,0 l/m 0 min 0 min 0,0 UV-I 0 W/m 0,0 km/h (0 Bft)
23.10.2013 20:18 14,4 C 12,8 C 94 % 1007,8 hPa 0,0 l/m 0 min 0 min 0,0 UV-I 0 W/m 0,0 km/h (0 Bft)
23.10.2013 20:20 14,4 C 12,8 C 94 % 1007,9 hPa 0,0 l/m 0 min 0 min 0,0 UV-I 0 W/m 0,0 km/h (0 Bft)
23.10.2013 20:22 14,4 C 12,8 C 94 % 1007,9 hPa 0,0 l/m 0 min 0 min 0,0 UV-I 0 W/m 0,0 km/h (0 Bft)
23.10.2013 20:24 14,5 C 12,8 C 94 % 1007,9 hPa 0,0 l/m 0 min 0 min 0,0 UV-I 0 W/m 0,0 km/h (0 Bft)
23.10.2013 20:26 14,5 C 12,8 C 95 % 1007,9 hPa 0,0 l/m 0 min 0 min 0,0 UV-I 0 W/m 0,0 km/h (0 Bft)
23.10.2013 20:28 14,5 C 12,8 C 95 % 1007,9 hPa 0,0 l/m 0 min 0 min 0,0 UV-I 0 W/m 0,0 km/h (0 Bft)
23.10.2013 20:30 14,6 C 12,8 C 95 % 1007,9 hPa 0,0 l/m 0 min 0 min 0,0 UV-I 0 W/m 0,0 km/h (0 Bft)
23.10.2013 20:32 14,6 C 12,8 C 95 % 1007,9 hPa 0,0 l/m 0 min 0 min 0,0 UV-I 0 W/m 0,0 km/h (0 Bft)
23.10.2013 20:34 14,6 C 12,8 C 95 % 1008,1 hPa 0,0 l/m 0 min 2 min 0,0 UV-I 0 W/m 0,0 km/h (0 Bft)
23.10.2013 20:36 14,6 C 12,8 C 95 % 1008,5 hPa 0,2 l/m 0 min 2 min 0,0 UV-I 0 W/m 0,0 km/h (0 Bft)
23.10.2013 20:38 14,6 C 12,8 C 95 % 1008,5 hPa 0,2 l/m 0 min 2 min 0,0 UV-I 0 W/m 0,0 km/h (0 Bft)
23.10.2013 20:40 14,6 C 12,8 C 95 % 1008,6 hPa 0,2 l/m 0 min 2 min 0,0 UV-I 0 W/m 0,0 km/h (0 Bft)
23.10.2013 20:42 14,6 C 12,8 C 95 % 1008,6 hPa 0,2 l/m 0 min 2 min 0,0 UV-I 0 W/m 0,0 km/h (0 Bft)
23.10.2013 20:44 14,6 C 12,8 C 95 % 1008,6 hPa 0,2 l/m 0 min 2 min 0,0 UV-I 0 W/m 0,0 km/h (0 Bft)
23.10.2013 20:46 14,6 C 12,8 C 95 % 1008,6 hPa 0,2 l/m 0 min 2 min 0,0 UV-I 0 W/m 0,0 km/h (0 Bft)
23.10.2013 20:48 14,6 C 12,8 C 95 % 1008,6 hPa 0,4 l/m 0 min 2 min 0,0 UV-I 0 W/m 2,6 km/h (1 Bft)
23.10.2013 20:50 14,6 C 12,8 C 95 % 1008,6 hPa 0,2 l/m 0 min 2 min 0,0 UV-I 0 W/m 10,3 km/h (2 Bft)
23.10.2013 20:52 14,6 C 12,8 C 95 % 1008,7 hPa 0,4 l/m 0 min 2 min 0,0 UV-I 0 W/m 12,9 km/h (3 Bft)
23.10.2013 20:54 14,6 C 12,8 C 95 % 1008,6 hPa 0,0 l/m 0 min 2 min 0,0 UV-I 0 W/m 18,0 km/h (3 Bft)
23.10.2013 20:56 14,6 C 12,8 C 95 % 1008,6 hPa 0,2 l/m 0 min 2 min 0,0 UV-I 0 W/m 5,1 km/h (1 Bft)
23.10.2013 20:58 14,6 C 12,8 C 95 % 1008,5 hPa 0,0 l/m 0 min 2 min 0,0 UV-I 0 W/m 7,7 km/h (2 Bft)
23.10.2013 21:00 14,6 C 12,8 C 95 % 1008,5 hPa 0,0 l/m 0 min 2 min 0,0 UV-I 0 W/m 7,7 km/h (2 Bft)
23.10.2013 21:02 14,6 C 12,8 C 95 % 1008,6 hPa 0,0 l/m 0 min 2 min 0,0 UV-I 0 W/m 0,0 km/h (0 Bft)
23.10.2013 21:06 14,7 C 12,8 C 95 % 1008,7 hPa 0,0 l/m 0 min 2 min 0,0 UV-I 0 W/m 5,1 km/h (1 Bft)
23.10.2013 21:08 14,6 C 12,8 C 95 % 1008,7 hPa 0,0 l/m 0 min 2 min 0,0 UV-I 0 W/m 10,3 km/h (2 Bft)
23.10.2013 21:10 14,6 C 12,8 C 95 % 1008,9 hPa 0,2 l/m 0 min 0 min 0,0 UV-I 0 W/m 5,1 km/h (1 Bft)
23.10.2013 21:12 14,6 C 12,8 C 95 % 1009,0 hPa 0,0 l/m 0 min 0 min 0,0 UV-I 0 W/m 10,3 km/h (2 Bft)
23.10.2013 21:14 14,6 C 12,8 C 95 % 1008,9 hPa 0,0 l/m 0 min 0 min 0,0 UV-I 0 W/m 0,0 km/h (0 Bft)
23.10.2013 21:16 14,6 C 12,8 C 95 % 1008,9 hPa 0,0 l/m 0 min 0 min 0,0 UV-I 0 W/m 0,0 km/h (0 Bft)
23.10.2013 21:18 14,5 C 12,8 C 95 % 1008,9 hPa 0,0 l/m 0 min 0 min 0,0 UV-I 0 W/m 2,6 km/h (1 Bft)
23.10.2013 21:20 14,4 C 12,8 C 95 % 1008,8 hPa 0,0 l/m 0 min 0 min 0,0 UV-I 0 W/m 0,0 km/h (0 Bft)
23.10.2013 21:22 14,4 C 12,8 C 95 % 1008,9 hPa 0,0 l/m 0 min 2 min 0,0 UV-I 0 W/m 2,6 km/h (1 Bft)
23.10.2013 21:24 14,5 C 12,8 C 95 % 1008,9 hPa 0,0 l/m 0 min 0 min 0,0 UV-I 0 W/m 10,3 km/h (2 Bft)
23.10.2013 21:26 14,5 C 12,8 C 96 % 1008,9 hPa 0,0 l/m 0 min 0 min 0,0 UV-I 0 W/m 10,3 km/h (2 Bft)
23.10.2013 21:28 14,5 C 12,8 C 96 % 1009,0 hPa 0,0 l/m 0 min 0 min 0,0 UV-I 0 W/m 0,0 km/h (0 Bft)
23.10.2013 21:30 14,5 C 12,8 C 96 % 1009,0 hPa 0,0 l/m 0 min 0 min 0,0 UV-I 0 W/m 0,0 km/h (0 Bft)
23.10.2013 21:32 14,5 C 12,8 C 96 % 1009,0 hPa 0,0 l/m 0 min 0 min 0,0 UV-I 0 W/m 0,0 km/h (0 Bft)
23.10.2013 21:34 14,5 C 12,8 C 96 % 1009,0 hPa 0,0 l/m 0 min 0 min 0,0 UV-I 0 W/m 0,0 km/h (0 Bft)
23.10.2013 21:36 14,4 C 12,8 C 96 % 1009,0 hPa 0,0 l/m 0 min 0 min 0,0 UV-I 0 W/m 0,0 km/h (0 Bft)
23.10.2013 21:38 14,4 C 12,8 C 96 % 1009,1 hPa 0,0 l/m 0 min 0 min 0,0 UV-I 0 W/m 0,0 km/h (0 Bft)
23.10.2013 21:40 14,4 C 12,2 C 96 % 1009,1 hPa 0,0 l/m 0 min 0 min 0,0 UV-I 0 W/m 2,6 km/h (1 Bft)
23.10.2013 21:42 14,3 C 12,2 C 96 % 1009,1 hPa 0,0 l/m 0 min 0 min 0,0 UV-I 0 W/m 0,0 km/h (0 Bft)
23.10.2013 21:44 14,3 C 12,2 C 96 % 1009,2 hPa 0,0 l/m 0 min 0 min 0,0 UV-I 0 W/m 0,0 km/h (0 Bft)
23.10.2013 21:46 14,3 C 12,2 C 96 % 1009,1 hPa 0,0 l/m 0 min 0 min 0,0 UV-I 0 W/m 2,6 km/h (1 Bft)
23.10.2013 21:48 14,3 C 12,2 C 96 % 1009,2 hPa 0,0 l/m 0 min 0 min 0,0 UV-I 0 W/m 5,1 km/h (1 Bft)
23.10.2013 21:50 14,2 C 12,2 C 96 % 1009,2 hPa 0,0 l/m 0 min 0 min 0,0 UV-I 0 W/m 0,0 km/h (0 Bft)
23.10.2013 21:52 14,2 C 12,2 C 96 % 1009,2 hPa 0,0 l/m 0 min 0 min 0,0 UV-I 0 W/m 0,0 km/h (0 Bft)
23.10.2013 21:54 14,2 C 12,2 C 96 % 1009,3 hPa 0,0 l/m 0 min 0 min 0,0 UV-I 0 W/m 0,0 km/h (0 Bft)
23.10.2013 21:56 14,2 C 12,2 C 96 % 1009,3 hPa 0,0 l/m 0 min 0 min 0,0 UV-I 0 W/m 0,0 km/h (0 Bft)
23.10.2013 21:58 14,2 C 12,2 C 96 % 1009,3 hPa 0,0 l/m 0 min 0 min 0,0 UV-I 0 W/m 0,0 km/h (0 Bft)
23.10.2013 22:00 14,2 C 12,2 C 96 % 1009,4 hPa 0,0 l/m 0 min 0 min 0,0 UV-I 0 W/m 0,0 km/h (0 Bft)
23.10.2013 22:02 14,2 C 12,2 C 96 % 1009,4 hPa 0,0 l/m 0 min 0 min 0,0 UV-I 0 W/m 0,0 km/h (0 Bft)
23.10.2013 22:06 14,2 C 12,8 C 96 % 1009,4 hPa 0,0 l/m 0 min 0 min 0,0 UV-I 0 W/m 0,0 km/h (0 Bft)
23.10.2013 22:08 14,2 C 12,8 C 96 % 1009,5 hPa 0,0 l/m 0 min 0 min 0,0 UV-I 0 W/m 2,6 km/h (1 Bft)
23.10.2013 22:10 14,2 C 12,8 C 96 % 1009,4 hPa 0,0 l/m 0 min 0 min 0,0 UV-I 0 W/m 0,0 km/h (0 Bft)
23.10.2013 22:12 14,2 C 12,8 C 96 % 1009,5 hPa 0,0 l/m 0 min 0 min 0,0 UV-I 0 W/m 0,0 km/h (0 Bft)
23.10.2013 22:14 14,2 C 12,8 C 96 % 1009,5 hPa 0,0 l/m 0 min 0 min 0,0 UV-I 0 W/m 0,0 km/h (0 Bft)
23.10.2013 22:16 14,2 C 12,8 C 96 % 1009,5 hPa 0,0 l/m 0 min 0 min 0,0 UV-I 0 W/m 2,6 km/h (1 Bft)
23.10.2013 22:18 14,2 C 12,8 C 96 % 1009,5 hPa 0,0 l/m 0 min 0 min 0,0 UV-I 0 W/m 0,0 km/h (0 Bft)
23.10.2013 22:20 14,2 C 12,8 C 96 % 1009,6 hPa 0,0 l/m 0 min 0 min 0,0 UV-I 0 W/m 0,0 km/h (0 Bft)
23.10.2013 22:22 14,2 C 12,8 C 96 % 1009,6 hPa 0,0 l/m 0 min 0 min 0,0 UV-I 0 W/m 0,0 km/h (0 Bft)
23.10.2013 22:24 14,2 C 12,8 C 96 % 1009,6 hPa 0,0 l/m 0 min 0 min 0,0 UV-I 0 W/m 0,0 km/h (0 Bft)
23.10.2013 22:26 14,2 C 12,8 C 96 % 1009,7 hPa 0,0 l/m 0 min 0 min 0,0 UV-I 0 W/m 0,0 km/h (0 Bft)
23.10.2013 22:28 14,2 C 12,2 C 96 % 1009,7 hPa 0,0 l/m 0 min 0 min 0,0 UV-I 0 W/m 0,0 km/h (0 Bft)
23.10.2013 22:30 14,2 C 12,2 C 96 % 1009,7 hPa 0,0 l/m 0 min 0 min 0,0 UV-I 0 W/m 0,0 km/h (0 Bft)
23.10.2013 22:32 14,2 C 12,2 C 96 % 1009,8 hPa 0,0 l/m 0 min 0 min 0,0 UV-I 0 W/m 0,0 km/h (0 Bft)
23.10.2013 22:34 14,2 C 12,8 C 96 % 1009,8 hPa 0,0 l/m 0 min 0 min 0,0 UV-I 0 W/m 0,0 km/h (0 Bft)
23.10.2013 22:36 14,2 C 12,8 C 96 % 1009,9 hPa 0,0 l/m 0 min 0 min 0,0 UV-I 0 W/m 7,7 km/h (2 Bft)
23.10.2013 22:38 14,2 C 12,8 C 96 % 1009,9 hPa 0,0 l/m 0 min 0 min 0,0 UV-I 0 W/m 0,0 km/h (0 Bft)
23.10.2013 22:40 14,2 C 12,2 C 96 % 1010,0 hPa 0,0 l/m 0 min 0 min 0,0 UV-I 0 W/m 0,0 km/h (0 Bft)
23.10.2013 22:42 14,2 C 12,2 C 96 % 1010,0 hPa 0,0 l/m 0 min 0 min 0,0 UV-I 0 W/m 0,0 km/h (0 Bft)
23.10.2013 22:44 14,2 C 12,2 C 96 % 1010,0 hPa 0,0 l/m 0 min 2 min 0,0 UV-I 0 W/m 2,6 km/h (1 Bft)
23.10.2013 22:46 14,2 C 12,8 C 96 % 1010,0 hPa 0,0 l/m 0 min 0 min 0,0 UV-I 0 W/m 0,0 km/h (0 Bft)
23.10.2013 22:48 14,2 C 12,8 C 96 % 1010,0 hPa 0,0 l/m 0 min 0 min 0,0 UV-I 0 W/m 0,0 km/h (0 Bft)
23.10.2013 22:50 14,2 C 12,2 C 96 % 1010,1 hPa 0,0 l/m 0 min 0 min 0,0 UV-I 0 W/m 0,0 km/h (0 Bft)
23.10.2013 22:52 14,2 C 12,2 C 96 % 1010,1 hPa 0,0 l/m 0 min 0 min 0,0 UV-I 0 W/m 0,0 km/h (0 Bft)
23.10.2013 22:54 14,2 C 12,2 C 96 % 1010,1 hPa 0,0 l/m 0 min 0 min 0,0 UV-I 0 W/m 2,6 km/h (1 Bft)
23.10.2013 22:56 14,2 C 12,2 C 96 % 1010,1 hPa 0,0 l/m 0 min 0 min 0,0 UV-I 0 W/m 0,0 km/h (0 Bft)
23.10.2013 22:58 14,2 C 12,2 C 96 % 1010,2 hPa 0,0 l/m 0 min 0 min 0,0 UV-I 0 W/m 0,0 km/h (0 Bft)
23.10.2013 23:00 14,2 C 12,2 C 96 % 1010,2 hPa 0,0 l/m 0 min 0 min 0,0 UV-I 0 W/m 0,0 km/h (0 Bft)
23.10.2013 23:02 14,2 C 12,2 C 96 % 1010,3 hPa 0,0 l/m 0 min 0 min 0,0 UV-I 0 W/m 0,0 km/h (0 Bft)
23.10.2013 23:06 14,2 C 12,2 C 98 % 1010,3 hPa 0,0 l/m 0 min 0 min 0,0 UV-I 0 W/m 0,0 km/h (0 Bft)
23.10.2013 23:08 14,2 C 12,2 C 96 % 1010,4 hPa 0,0 l/m 0 min 0 min 0,0 UV-I 0 W/m 7,7 km/h (2 Bft)
23.10.2013 23:10 14,2 C 12,2 C 96 % 1010,5 hPa 0,0 l/m 0 min 0 min 0,0 UV-I 0 W/m 0,0 km/h (0 Bft)
23.10.2013 23:12 14,2 C 12,2 C 96 % 1010,5 hPa 0,0 l/m 0 min 0 min 0,0 UV-I 0 W/m 10,3 km/h (2 Bft)
23.10.2013 23:14 14,2 C 12,2 C 96 % 1010,4 hPa 0,0 l/m 0 min 0 min 0,0 UV-I 0 W/m 0,0 km/h (0 Bft)
23.10.2013 23:16 14,2 C 12,2 C 96 % 1010,4 hPa 0,0 l/m 0 min 0 min 0,0 UV-I 0 W/m 0,0 km/h (0 Bft)
23.10.2013 23:18 14,1 C 12,2 C 95 % 1010,4 hPa 0,0 l/m 0 min 0 min 0,0 UV-I 0 W/m 0,0 km/h (0 Bft)
23.10.2013 23:20 14,1 C 12,2 C 95 % 1010,5 hPa 0,0 l/m 0 min 0 min 0,0 UV-I 0 W/m 0,0 km/h (0 Bft)
23.10.2013 23:22 14,1 C 12,2 C 95 % 1010,5 hPa 0,0 l/m 0 min 0 min 0,0 UV-I 0 W/m 0,0 km/h (0 Bft)
23.10.2013 23:24 14,2 C 12,2 C 95 % 1010,5 hPa 0,0 l/m 0 min 0 min 0,0 UV-I 0 W/m 12,9 km/h (3 Bft)
23.10.2013 23:26 14,2 C 12,2 C 96 % 1010,5 hPa 0,0 l/m 0 min 0 min 0,0 UV-I 0 W/m 10,3 km/h (2 Bft)
23.10.2013 23:28 14,2 C 12,2 C 96 % 1010,6 hPa 0,0 l/m 0 min 0 min 0,0 UV-I 0 W/m 5,1 km/h (1 Bft)
23.10.2013 23:30 14,2 C 12,2 C 96 % 1010,7 hPa 0,0 l/m 0 min 0 min 0,0 UV-I 0 W/m 2,6 km/h (1 Bft)
23.10.2013 23:32 14,2 C 12,2 C 95 % 1010,7 hPa 0,0 l/m 0 min 0 min 0,0 UV-I 0 W/m 0,0 km/h (0 Bft)
23.10.2013 23:34 14,2 C 12,2 C 95 % 1010,6 hPa 0,0 l/m 0 min 0 min 0,0 UV-I 0 W/m 0,0 km/h (0 Bft)
23.10.2013 23:36 14,2 C 12,2 C 95 % 1010,7 hPa 0,0 l/m 0 min 0 min 0,0 UV-I 0 W/m 0,0 km/h (0 Bft)
23.10.2013 23:38 14,2 C 12,2 C 95 % 1010,8 hPa 0,0 l/m 0 min 0 min 0,0 UV-I 0 W/m 2,6 km/h (1 Bft)
23.10.2013 23:40 14,2 C 12,2 C 95 % 1010,8 hPa 0,0 l/m 0 min 0 min 0,0 UV-I 0 W/m 0,0 km/h (0 Bft)
23.10.2013 23:42 14,2 C 12,2 C 95 % 1010,8 hPa 0,0 l/m 0 min 0 min 0,0 UV-I 0 W/m 0,0 km/h (0 Bft)
23.10.2013 23:44 14,2 C 12,2 C 95 % 1010,8 hPa 0,0 l/m 0 min 0 min 0,0 UV-I 0 W/m 5,1 km/h (1 Bft)
23.10.2013 23:46 14,2 C 12,2 C 95 % 1010,8 hPa 0,0 l/m 0 min 0 min 0,0 UV-I 0 W/m 7,7 km/h (2 Bft)
23.10.2013 23:48 14,2 C 12,2 C 95 % 1010,8 hPa 0,0 l/m 0 min 0 min 0,0 UV-I 0 W/m 5,1 km/h (1 Bft)
23.10.2013 23:50 14,2 C 12,2 C 95 % 1010,7 hPa 0,0 l/m 0 min 0 min 0,0 UV-I 0 W/m 5,1 km/h (1 Bft)
23.10.2013 23:52 14,2 C 12,2 C 95 % 1010,9 hPa 0,0 l/m 0 min 0 min 0,0 UV-I 0 W/m 0,0 km/h (0 Bft)
23.10.2013 23:54 14,2 C 12,2 C 95 % 1010,9 hPa 0,0 l/m 0 min 0 min 0,0 UV-I 0 W/m 7,7 km/h (2 Bft)
23.10.2013 23:56 14,2 C 12,2 C 95 % 1010,9 hPa 0,0 l/m 0 min 0 min 0,0 UV-I 0 W/m 7,7 km/h (2 Bft)
23.10.2013 23:58 14,2 C 12,2 C 95 % 1011,0 hPa 0,0 l/m 0 min 0 min 0,0 UV-I 0 W/m 0,0 km/h (0 Bft)
_ Min-Zeit 23:16 20:12 16:32 08:22 - - - - - 00:02
Minimum _ 14,1 C 12,2 C 69 % 1001,5 hPa - - - - - 0,0 km/h (0 Bft)
_ Max-Zeit 14:20 14:20 02:24 23:58 19:06 10:42 00:00 14:12 14:50 14:46
Maximum _ 19,7 C 17,8 C 99 % 1011,0 hPa 0,4 l/m 2 min 2 min 1,1 UV-I 533 W/m 41,2 km/h
S-SW (6 Bft)
Durchschnitt _ 16,2 C 14,4 C 89 % 1004,4 hPa #4,8 l/m #1:26 h #4:50 h 0,7 UV-I 123 W/m 13,0 km/h (3 Bft)
© 2013 W. Hausmann